| time (UTC) | temp F | wind direction | speed MPH | gust MPH | rain 1hr in | rain 24hr in | rain mn in | humidity % | barometer mb |
| 20260905161213 | 77 | 27 | 2.0 | 5.0 | 0.00 | 0.00 | 0.00 | 67 | 1015.1 |
| 20260905161013 | 77 | 17 | 1.0 | 5.0 | 0.00 | 0.00 | 0.00 | 68 | 1015.1 |
| 20260905160813 | 78 | 36 | 2.0 | 5.0 | 0.00 | 0.00 | 0.00 | 67 | 1015.2 |
| 20260905160612 | 78 | 360 | 2.0 | 5.0 | 0.00 | 0.00 | 0.00 | 68 | 1015.2 |
| 20260905160412 | 77 | 7 | 1.0 | 6.0 | 0.00 | 0.00 | 0.00 | 68 | 1015.1 |
| 20260905160212 | 77 | 353 | 0.0 | 6.0 | 0.00 | 0.00 | 0.00 | 69 | 1015.1 |
| 20260905160011 | 77 | 13 | 1.0 | 6.0 | 0.00 | 0.00 | 0.00 | 69 | 1015.1 |
| 20260905155811 | 76 | 43 | 1.0 | 6.0 | 0.00 | 0.00 | 0.00 | 68 | 1015.1 |
| 20260905155611 | 76 | 44 | 1.0 | 6.0 | 0.00 | 0.00 | 0.00 | 70 | 1015.1 |
| 20260905155411 | 76 | 20 | 0.0 | 6.0 | 0.00 | 0.00 | 0.00 | 70 | 1015.0 |
| 20260905155210 | 76 | 39 | 2.0 | 6.0 | 0.00 | 0.00 | 0.00 | 69 | 1015.0 |
| 20260905155010 | 76 | 23 | 2.0 | 6.0 | 0.00 | 0.00 | 0.00 | 69 | 1015.1 |
| 20260905154810 | 76 | 11 | 1.0 | 4.0 | 0.00 | 0.00 | 0.00 | 71 | 1015.0 |
| 20260905154609 | 75 | 358 | 1.0 | 6.0 | 0.00 | 0.00 | 0.00 | 71 | 1015.0 |
| 20260905154409 | 75 | 7 | 1.0 | 7.0 | 0.00 | 0.00 | 0.00 | 71 | 1015.0 |
| 20260905154209 | 75 | 45 | 1.0 | 7.0 | 0.00 | 0.00 | 0.00 | 71 | 1015.1 |
| 20260905154008 | 74 | 25 | 3.0 | 7.0 | 0.00 | 0.00 | 0.00 | 71 | 1015.1 |
| 20260905153808 | 75 | 28 | 3.0 | 7.0 | 0.00 | 0.00 | 0.00 | 71 | 1015.1 |
| 20260905153608 | 75 | 4 | 2.0 | 6.0 | 0.00 | 0.00 | 0.00 | 72 | 1015.1 |
| 20260905153407 | 75 | 27 | 2.0 | 9.0 | 0.00 | 0.00 | 0.00 | 71 | 1015.1 |
| 20260905153207 | 75 | 37 | 2.0 | 9.0 | 0.00 | 0.00 | 0.00 | 71 | 1015.0 |
| 20260905153007 | 75 | 45 | 2.0 | 9.0 | 0.00 | 0.00 | 0.00 | 71 | 1015.2 |
| 20260905152806 | 75 | 63 | 2.0 | 9.0 | 0.00 | 0.00 | 0.00 | 71 | 1015.2 |
| 20260905152606 | 75 | 53 | 2.0 | 9.0 | 0.00 | 0.00 | 0.00 | 70 | 1015.3 |
| 20260905152406 | 75 | 24 | 1.0 | 5.0 | 0.00 | 0.00 | 0.00 | 72 | 1015.2 |
| 20260905152206 | 75 | 23 | 2.0 | 5.0 | 0.00 | 0.00 | 0.00 | 72 | 1015.3 |
| 20260905152005 | 75 | 20 | 2.0 | 5.0 | 0.00 | 0.00 | 0.00 | 71 | 1015.3 |
| 20260905151805 | 75 | 63 | 1.0 | 4.0 | 0.00 | 0.00 | 0.00 | 71 | 1015.2 |
| 20260905151605 | 74 | 65 | 0.0 | 4.0 | 0.00 | 0.00 | 0.00 | 72 | 1015.2 |
| 20260905151404 | 74 | 47 | 1.0 | 4.0 | 0.00 | 0.00 | 0.00 | 71 | 1015.2 |
| 20260905151204 | 74 | 351 | 0.0 | 4.0 | 0.00 | 0.00 | 0.00 | 71 | 1015.2 |
| 20260905151004 | 74 | 351 | 0.0 | 4.0 | 0.00 | 0.00 | 0.00 | 72 | 1015.1 |
| 20260905150803 | 74 | 352 | 1.0 | 7.0 | 0.00 | 0.00 | 0.00 | 72 | 1015.2 |
| 20260905150603 | 74 | 7 | 1.0 | 7.0 | 0.00 | 0.00 | 0.00 | 73 | 1015.2 |
| 20260905150403 | 73 | 42 | 1.0 | 7.0 | 0.00 | 0.00 | 0.00 | 73 | 1015.3 |
| 20260905150202 | 73 | 32 | 2.0 | 7.0 | 0.00 | 0.00 | 0.00 | 73 | 1015.2 |
| 20260905150002 | 73 | 23 | 2.0 | 7.0 | 0.00 | 0.00 | 0.00 | 73 | 1015.3 |
| 20260905145802 | 73 | 31 | 1.0 | 5.0 | 0.00 | 0.00 | 0.00 | 74 | 1015.4 |
| 20260905145601 | 73 | 31 | 2.0 | 5.0 | 0.00 | 0.00 | 0.00 | 73 | 1015.3 |
| 20260905145401 | 73 | 18 | 2.0 | 5.0 | 0.00 | 0.00 | 0.00 | 73 | 1015.3 |
| 20260905145201 | 73 | 22 | 1.0 | 5.0 | 0.00 | 0.00 | 0.00 | 74 | 1015.3 |
| 20260905145001 | 73 | 38 | 2.0 | 5.0 | 0.00 | 0.00 | 0.00 | 74 | 1015.3 |
| 20260905144800 | 72 | 43 | 2.0 | 6.0 | 0.00 | 0.00 | 0.00 | 74 | 1015.3 |
| 20260905144600 | 72 | 38 | 2.0 | 6.0 | 0.00 | 0.00 | 0.00 | 74 | 1015.3 |
| 20260905144400 | 72 | 30 | 1.0 | 6.0 | 0.00 | 0.00 | 0.00 | 75 | 1015.3 |
| 20260905144159 | 72 | 8 | 2.0 | 6.0 | 0.00 | 0.00 | 0.00 | 76 | 1015.3 |
| 20260905143959 | 72 | 32 | 2.0 | 6.0 | 0.00 | 0.00 | 0.00 | 75 | 1015.2 |
| 20260905143759 | 72 | 53 | 2.0 | 6.0 | 0.00 | 0.00 | 0.00 | 75 | 1015.3 |
| 20260905143558 | 72 | 58 | 2.0 | 6.0 | 0.00 | 0.00 | 0.00 | 75 | 1015.2 |
| 20260905143358 | 72 | 54 | 2.0 | 6.0 | 0.00 | 0.00 | 0.00 | 75 | 1015.3 |
| 20260905143158 | 71 | 48 | 2.0 | 5.0 | 0.00 | 0.00 | 0.00 | 76 | 1015.2 |
| 20260905142957 | 71 | 50 | 2.0 | 6.0 | 0.00 | 0.00 | 0.00 | 76 | 1015.2 |
| 20260905142757 | 71 | 54 | 1.0 | 6.0 | 0.00 | 0.00 | 0.00 | 76 | 1015.2 |
| 20260905142557 | 71 | 35 | 0.0 | 6.0 | 0.00 | 0.00 | 0.00 | 76 | 1015.1 |
| 20260905142356 | 71 | 36 | 1.0 | 6.0 | 0.00 | 0.00 | 0.00 | 75 | 1015.1 |
| 20260905142156 | 71 | 36 | 2.0 | 6.0 | 0.00 | 0.00 | 0.00 | 74 | 1015.1 |
| 20260905141956 | 71 | 60 | 1.0 | 6.0 | 0.00 | 0.00 | 0.00 | 76 | 1015.1 |
| 20260905141756 | 71 | 57 | 1.0 | 6.0 | 0.00 | 0.00 | 0.00 | 76 | 1015.0 |
| 20260905141555 | 71 | 21 | 2.0 | 6.0 | 0.00 | 0.00 | 0.00 | 77 | 1015.0 |
| 20260905141355 | 70 | 3 | 2.0 | 6.0 | 0.00 | 0.00 | 0.00 | 76 | 1015.1 |
| 20260905141155 | 70 | 24 | 2.0 | 5.0 | 0.00 | 0.00 | 0.00 | 77 | 1015.0 |
| 20260905140954 | 70 | 36 | 2.0 | 5.0 | 0.00 | 0.00 | 0.00 | 77 | 1015.0 |
| 20260905140754 | 70 | 41 | 2.0 | 5.0 | 0.00 | 0.00 | 0.00 | 77 | 1014.9 |
| 20260905140554 | 70 | 30 | 2.0 | 5.0 | 0.00 | 0.00 | 0.00 | 76 | 1015.0 |
| 20260905140353 | 70 | 33 | 2.0 | 7.0 | 0.00 | 0.00 | 0.00 | 77 | 1015.0 |
| 20260905140153 | 70 | 22 | 2.0 | 7.0 | 0.00 | 0.00 | 0.00 | 77 | 1015.0 |
| 20260905135953 | 70 | 22 | 2.0 | 7.0 | 0.00 | 0.00 | 0.00 | 78 | 1015.0 |
| 20260905135752 | 70 | 20 | 2.0 | 7.0 | 0.00 | 0.00 | 0.00 | 78 | 1015.0 |
| 20260905135552 | 70 | 21 | 3.0 | 7.0 | 0.00 | 0.00 | 0.00 | 78 | 1015.1 |
| 20260905135352 | 70 | 38 | 2.0 | 7.0 | 0.00 | 0.00 | 0.00 | 78 | 1015.1 |
| 20260905135151 | 70 | 33 | 2.0 | 5.0 | 0.00 | 0.00 | 0.00 | 79 | 1015.1 |
| 20260905134951 | 70 | 32 | 1.0 | 5.0 | 0.00 | 0.00 | 0.00 | 80 | 1015.1 |
| 20260905134751 | 70 | 49 | 1.0 | 5.0 | 0.00 | 0.00 | 0.00 | 80 | 1015.1 |
| 20260905134550 | 70 | 47 | 2.0 | 5.0 | 0.00 | 0.00 | 0.00 | 79 | 1015.2 |
| 20260905134350 | 70 | 57 | 1.0 | 5.0 | 0.00 | 0.00 | 0.00 | 80 | 1015.2 |
| 20260905134150 | 69 | 44 | 1.0 | 5.0 | 0.00 | 0.00 | 0.00 | 81 | 1015.2 |
| 20260905133950 | 69 | 22 | 2.0 | 5.0 | 0.00 | 0.00 | 0.00 | 80 | 1015.2 |
| 20260905133749 | 69 | 31 | 2.0 | 5.0 | 0.00 | 0.00 | 0.00 | 80 | 1015.2 |
| 20260905133549 | 69 | 50 | 2.0 | 5.0 | 0.00 | 0.00 | 0.00 | 81 | 1015.2 |
| 20260905133349 | 69 | 20 | 2.0 | 5.0 | 0.00 | 0.00 | 0.00 | 81 | 1015.2 |
| 20260905133149 | 69 | 33 | 2.0 | 5.0 | 0.00 | 0.00 | 0.00 | 81 | 1015.3 |
| 20260905132948 | 69 | 67 | 2.0 | 5.0 | 0.00 | 0.00 | 0.00 | 80 | 1015.3 |
| 20260905132748 | 69 | 53 | 2.0 | 5.0 | 0.00 | 0.00 | 0.00 | 80 | 1015.3 |
| 20260905132547 | 69 | 25 | 2.0 | 5.0 | 0.00 | 0.00 | 0.00 | 81 | 1015.3 |
| 20260905132347 | 69 | 24 | 1.0 | 5.0 | 0.00 | 0.00 | 0.00 | 81 | 1015.3 |
| 20260905132147 | 69 | 44 | 2.0 | 5.0 | 0.00 | 0.00 | 0.00 | 81 | 1015.3 |
| 20260905131946 | 69 | 36 | 2.0 | 5.0 | 0.00 | 0.00 | 0.00 | 81 | 1015.4 |
| 20260905131746 | 69 | 34 | 1.0 | 5.0 | 0.00 | 0.00 | 0.00 | 82 | 1015.4 |
| 20260905131546 | 69 | 86 | 1.0 | 5.0 | 0.00 | 0.00 | 0.00 | 82 | 1015.2 |
| 20260905131346 | 69 | 70 | 1.0 | 5.0 | 0.00 | 0.00 | 0.00 | 82 | 1015.3 |
| 20260905131145 | 69 | 19 | 2.0 | 5.0 | 0.00 | 0.00 | 0.00 | 82 | 1015.3 |
| 20260905130945 | 69 | 22 | 1.0 | 5.0 | 0.00 | 0.00 | 0.00 | 82 | 1015.3 |
| 20260905130745 | 69 | 31 | 1.0 | 5.0 | 0.00 | 0.00 | 0.00 | 82 | 1015.4 |
| 20260905130544 | 69 | 22 | 1.0 | 4.0 | 0.00 | 0.00 | 0.00 | 82 | 1015.4 |
| 20260905130344 | 69 | 42 | 1.0 | 4.0 | 0.00 | 0.00 | 0.00 | 82 | 1015.4 |
| 20260905130144 | 69 | 56 | 1.0 | 5.0 | 0.00 | 0.00 | 0.00 | 82 | 1015.4 |
| 20260905125943 | 69 | 20 | 1.0 | 5.0 | 0.00 | 0.00 | 0.00 | 83 | 1015.5 |
| 20260905125743 | 69 | 26 | 1.0 | 5.0 | 0.00 | 0.00 | 0.00 | 83 | 1015.5 |
| 20260905125543 | 68 | 23 | 1.0 | 5.0 | 0.00 | 0.00 | 0.00 | 83 | 1015.4 |
| 20260905125342 | 68 | 21 | 2.0 | 5.0 | 0.00 | 0.00 | 0.00 | 84 | 1015.4 |
| 20260905125142 | 68 | 25 | 2.0 | 5.0 | 0.00 | 0.00 | 0.00 | 83 | 1015.5 |
| 20260905124942 | 68 | 31 | 1.0 | 4.0 | 0.00 | 0.00 | 0.00 | 84 | 1015.5 |
| 20260905124741 | 68 | 32 | 1.0 | 3.0 | 0.00 | 0.00 | 0.00 | 84 | 1015.5 |
| 20260905124541 | 68 | 10 | 1.0 | 3.0 | 0.00 | 0.00 | 0.00 | 84 | 1015.4 |
| 20260905124341 | 68 | 33 | 1.0 | 4.0 | 0.00 | 0.00 | 0.00 | 84 | 1015.4 |
| 20260905124141 | 68 | 62 | 1.0 | 4.0 | 0.00 | 0.00 | 0.00 | 84 | 1015.5 |
| 20260905123940 | 68 | 55 | 1.0 | 4.0 | 0.00 | 0.00 | 0.00 | 85 | 1015.5 |
| 20260905123740 | 67 | 58 | 1.0 | 4.0 | 0.00 | 0.00 | 0.00 | 85 | 1015.4 |
| 20260905123540 | 67 | 24 | 2.0 | 4.0 | 0.00 | 0.00 | 0.00 | 85 | 1015.5 |
| 20260905123339 | 67 | 31 | 1.0 | 4.0 | 0.00 | 0.00 | 0.00 | 86 | 1015.5 |
| 20260905123139 | 67 | 60 | 0.0 | 5.0 | 0.00 | 0.00 | 0.00 | 86 | 1015.5 |
| 20260905122939 | 66 | 41 | 1.0 | 5.0 | 0.00 | 0.00 | 0.00 | 87 | 1015.5 |
| 20260905122738 | 66 | 50 | 1.0 | 5.0 | 0.00 | 0.00 | 0.00 | 87 | 1015.5 |
| 20260905122538 | 66 | 49 | 2.0 | 5.0 | 0.00 | 0.00 | 0.00 | 88 | 1015.5 |
| 20260905122338 | 66 | 57 | 1.0 | 4.0 | 0.00 | 0.00 | 0.00 | 88 | 1015.6 |
| 20260905122137 | 66 | 56 | 1.0 | 4.0 | 0.00 | 0.00 | 0.00 | 88 | 1015.5 |
| 20260905121937 | 65 | 73 | 1.0 | 4.0 | 0.00 | 0.00 | 0.00 | 88 | 1015.5 |
| 20260905121737 | 65 | 79 | 1.0 | 3.0 | 0.00 | 0.00 | 0.00 | 89 | 1015.5 |
| 20260905121537 | 65 | 54 | 1.0 | 4.0 | 0.00 | 0.00 | 0.00 | 89 | 1015.5 |
| 20260905121336 | 65 | 31 | 0.0 | 4.0 | 0.00 | 0.00 | 0.00 | 90 | 1015.5 |
| 20260905121136 | 65 | 11 | 0.0 | 4.0 | 0.00 | 0.00 | 0.00 | 90 | 1015.6 |
| 20260905120936 | 65 | 15 | 1.0 | 4.0 | 0.00 | 0.00 | 0.00 | 90 | 1015.6 |
| 20260905120735 | 64 | 69 | 1.0 | 4.0 | 0.00 | 0.00 | 0.00 | 90 | 1015.6 |
| 20260905120535 | 64 | 46 | 1.0 | 3.0 | 0.00 | 0.00 | 0.00 | 90 | 1015.5 |
| 20260905120335 | 64 | 52 | 1.0 | 3.0 | 0.00 | 0.00 | 0.00 | 90 | 1015.6 |
| 20260905120134 | 64 | 61 | 0.0 | 2.0 | 0.00 | 0.00 | 0.00 | 91 | 1015.5 |
| 20260905115934 | 64 | 25 | 0.0 | 2.0 | 0.00 | 0.00 | 0.00 | 91 | 1015.5 |
| 20260905115734 | 64 | 20 | 0.0 | 2.0 | 0.00 | 0.00 | 0.00 | 92 | 1015.5 |
| 20260905115533 | 64 | 17 | 0.0 | 2.0 | 0.00 | 0.00 | 0.00 | 92 | 1015.5 |
| 20260905115333 | 63 | 17 | 0.0 | 2.0 | 0.00 | 0.00 | 0.00 | 92 | 1015.5 |
| 20260905115133 | 63 | 17 | 0.0 | 2.0 | 0.00 | 0.00 | 0.00 | 93 | 1015.5 |
| 20260905114932 | 63 | 17 | 0.0 | 1.0 | 0.00 | 0.00 | 0.00 | 93 | 1015.4 |
| 20260905114732 | 62 | 17 | 0.0 | 1.0 | 0.00 | 0.00 | 0.00 | 94 | 1015.4 |
| 20260905114532 | 62 | 17 | 0.0 | 1.0 | 0.00 | 0.00 | 0.00 | 94 | 1015.4 |
| 20260905114332 | 62 | 17 | 0.0 | 1.0 | 0.00 | 0.00 | 0.00 | 95 | 1015.4 |
| 20260905114131 | 62 | 17 | 0.0 | 1.0 | 0.00 | 0.00 | 0.00 | 95 | 1015.4 |
| 20260905113931 | 62 | 0 | 0.0 | 0.0 | 0.00 | 0.00 | 0.00 | 95 | 1015.3 |
| 20260905113731 | 61 | 0 | 0.0 | 0.0 | 0.00 | 0.00 | 0.00 | 95 | 1015.3 |
| 20260905113530 | 61 | 0 | 0.0 | 0.0 | 0.00 | 0.00 | 0.00 | 95 | 1015.3 |
| 20260905113330 | 61 | 0 | 0.0 | 0.0 | 0.00 | 0.00 | 0.00 | 95 | 1015.2 |
| 20260905113130 | 61 | 0 | 0.0 | 0.0 | 0.00 | 0.00 | 0.00 | 95 | 1015.3 |
| 20260905112929 | 61 | 0 | 0.0 | 0.0 | 0.00 | 0.00 | 0.00 | 95 | 1015.3 |
| 20260905112729 | 61 | 0 | 0.0 | 0.0 | 0.00 | 0.00 | 0.00 | 95 | 1015.3 |
| 20260905112529 | 61 | 0 | 0.0 | 0.0 | 0.00 | 0.00 | 0.00 | 94 | 1015.2 |
| 20260905112328 | 61 | 0 | 0.0 | 0.0 | 0.00 | 0.00 | 0.00 | 94 | 1015.1 |
| 20260905112128 | 61 | 0 | 0.0 | 0.0 | 0.00 | 0.00 | 0.00 | 94 | 1015.1 |
| 20260905111928 | 61 | 0 | 0.0 | 0.0 | 0.00 | 0.00 | 0.00 | 94 | 1015.0 |
| 20260905111727 | 61 | 0 | 0.0 | 0.0 | 0.00 | 0.00 | 0.00 | 94 | 1015.0 |
| 20260905111527 | 61 | 0 | 0.0 | 0.0 | 0.00 | 0.00 | 0.00 | 94 | 1014.9 |
| 20260905111327 | 61 | 0 | 0.0 | 0.0 | 0.00 | 0.00 | 0.00 | 94 | 1014.9 |
| 20260905111126 | 61 | 0 | 0.0 | 0.0 | 0.00 | 0.00 | 0.00 | 94 | 1014.9 |
| 20260905110926 | 61 | 0 | 0.0 | 0.0 | 0.00 | 0.00 | 0.00 | 94 | 1014.8 |
| 20260905110726 | 61 | 0 | 0.0 | 0.0 | 0.00 | 0.00 | 0.00 | 94 | 1014.8 |
| 20260905110526 | 61 | 0 | 0.0 | 0.0 | 0.00 | 0.00 | 0.00 | 94 | 1014.8 |
| 20260905110325 | 61 | 0 | 0.0 | 0.0 | 0.00 | 0.00 | 0.00 | 93 | 1014.8 |
| 20260905110125 | 61 | 0 | 0.0 | 0.0 | 0.00 | 0.00 | 0.00 | 93 | 1014.8 |
| 20260905105925 | 61 | 0 | 0.0 | 0.0 | 0.00 | 0.00 | 0.00 | 93 | 1014.7 |
| 20260905105724 | 62 | 0 | 0.0 | 0.0 | 0.00 | 0.00 | 0.00 | 93 | 1014.7 |
| 20260905105524 | 62 | 0 | 0.0 | 0.0 | 0.00 | 0.00 | 0.00 | 93 | 1014.6 |
| 20260905105324 | 62 | 0 | 0.0 | 0.0 | 0.00 | 0.00 | 0.00 | 93 | 1014.6 |
| 20260905105123 | 62 | 0 | 0.0 | 1.0 | 0.00 | 0.00 | 0.00 | 93 | 1014.5 |
| 20260905104923 | 62 | 0 | 0.0 | 1.0 | 0.00 | 0.00 | 0.00 | 93 | 1014.5 |
| 20260905104723 | 62 | 0 | 0.0 | 1.0 | 0.00 | 0.00 | 0.00 | 93 | 1014.5 |
| 20260905104523 | 62 | 17 | 0.0 | 1.0 | 0.00 | 0.00 | 0.00 | 93 | 1014.5 |
| 20260905104322 | 62 | 17 | 0.0 | 1.0 | 0.00 | 0.00 | 0.00 | 93 | 1014.4 |
| 20260905104122 | 62 | 17 | 0.0 | 1.0 | 0.00 | 0.00 | 0.00 | 93 | 1014.4 |
| 20260905103922 | 62 | 17 | 0.0 | 1.0 | 0.00 | 0.00 | 0.00 | 93 | 1014.4 |
| 20260905103721 | 62 | 17 | 0.0 | 1.0 | 0.00 | 0.00 | 0.00 | 93 | 1014.5 |
| 20260905103521 | 62 | 0 | 0.0 | 0.0 | 0.00 | 0.00 | 0.00 | 93 | 1014.6 |
| 20260905103321 | 62 | 0 | 0.0 | 1.0 | 0.00 | 0.00 | 0.00 | 92 | 1014.6 |
| 20260905103120 | 62 | 0 | 0.0 | 1.0 | 0.00 | 0.00 | 0.00 | 92 | 1014.6 |
| 20260905102920 | 62 | 0 | 0.0 | 1.0 | 0.00 | 0.00 | 0.00 | 92 | 1014.6 |
| 20260905102720 | 62 | 17 | 0.0 | 1.0 | 0.00 | 0.00 | 0.00 | 92 | 1014.5 |
| 20260905102519 | 62 | 0 | 0.0 | 0.0 | 0.00 | 0.00 | 0.00 | 92 | 1014.6 |
| 20260905102319 | 62 | 0 | 0.0 | 0.0 | 0.00 | 0.00 | 0.00 | 92 | 1014.6 |
| 20260905102119 | 62 | 0 | 0.0 | 1.0 | 0.00 | 0.00 | 0.00 | 92 | 1014.6 |
| 20260905101918 | 62 | 0 | 0.0 | 1.0 | 0.00 | 0.00 | 0.00 | 92 | 1014.6 |
| 20260905101718 | 62 | 0 | 0.0 | 1.0 | 0.00 | 0.00 | 0.00 | 92 | 1014.6 |
| 20260905101518 | 63 | 17 | 0.0 | 1.0 | 0.00 | 0.00 | 0.00 | 92 | 1014.5 |
| 20260905101318 | 63 | 17 | 0.0 | 1.0 | 0.00 | 0.00 | 0.00 | 91 | 1014.5 |
| 20260905101117 | 63 | 17 | 0.0 | 1.0 | 0.00 | 0.00 | 0.00 | 91 | 1014.5 |
| 20260905100917 | 63 | 0 | 0.0 | 1.0 | 0.00 | 0.00 | 0.00 | 91 | 1014.5 |
| 20260905100717 | 63 | 0 | 0.0 | 1.0 | 0.00 | 0.00 | 0.00 | 91 | 1014.5 |
| 20260905100516 | 63 | 17 | 0.0 | 1.0 | 0.00 | 0.00 | 0.00 | 91 | 1014.5 |
| 20260905100316 | 63 | 17 | 0.0 | 1.0 | 0.00 | 0.00 | 0.00 | 91 | 1014.5 |
| 20260905100116 | 63 | 17 | 0.0 | 1.0 | 0.00 | 0.00 | 0.00 | 91 | 1014.5 |
| 20260905095915 | 63 | 0 | 0.0 | 1.0 | 0.00 | 0.00 | 0.00 | 91 | 1014.5 |
| 20260905095715 | 63 | 0 | 0.0 | 0.0 | 0.00 | 0.00 | 0.00 | 91 | 1014.6 |
| 20260905095515 | 64 | 0 | 0.0 | 0.0 | 0.00 | 0.00 | 0.00 | 90 | 1014.6 |
| 20260905095314 | 64 | 0 | 0.0 | 0.0 | 0.00 | 0.00 | 0.00 | 90 | 1014.6 |
| 20260905095114 | 64 | 0 | 0.0 | 0.0 | 0.00 | 0.00 | 0.00 | 90 | 1014.7 |
| 20260905094914 | 64 | 0 | 0.0 | 0.0 | 0.00 | 0.00 | 0.00 | 90 | 1014.7 |
| 20260905094713 | 64 | 0 | 0.0 | 0.0 | 0.00 | 0.00 | 0.00 | 89 | 1014.7 |
| 20260905094513 | 64 | 0 | 0.0 | 0.0 | 0.00 | 0.00 | 0.00 | 89 | 1014.7 |
| 20260905094313 | 64 | 0 | 0.0 | 1.0 | 0.00 | 0.00 | 0.00 | 89 | 1014.7 |
| 20260905094113 | 64 | 0 | 0.0 | 1.0 | 0.00 | 0.00 | 0.00 | 89 | 1014.7 |
| 20260905093912 | 64 | 0 | 0.0 | 1.0 | 0.00 | 0.00 | 0.00 | 89 | 1014.6 |
| 20260905093712 | 64 | 16 | 0.0 | 1.0 | 0.00 | 0.00 | 0.00 | 89 | 1014.7 |
| 20260905093512 | 65 | 16 | 0.0 | 1.0 | 0.00 | 0.00 | 0.00 | 89 | 1014.6 |
| 20260905093311 | 65 | 15 | 0.0 | 1.0 | 0.00 | 0.00 | 0.00 | 89 | 1014.6 |
| 20260905093111 | 65 | 15 | 0.0 | 1.0 | 0.00 | 0.00 | 0.00 | 89 | 1014.6 |
| 20260905092911 | 65 | 15 | 0.0 | 1.0 | 0.00 | 0.00 | 0.00 | 88 | 1014.7 |
| 20260905092710 | 65 | 15 | 0.0 | 1.0 | 0.00 | 0.00 | 0.00 | 88 | 1014.7 |
| 20260905092510 | 65 | 15 | 0.0 | 1.0 | 0.00 | 0.00 | 0.00 | 88 | 1014.7 |
| 20260905092310 | 65 | 15 | 0.0 | 2.0 | 0.00 | 0.00 | 0.00 | 88 | 1014.7 |
| 20260905092109 | 65 | 15 | 0.0 | 2.0 | 0.00 | 0.00 | 0.00 | 88 | 1014.7 |
| 20260905091909 | 65 | 15 | 0.0 | 2.0 | 0.00 | 0.00 | 0.00 | 88 | 1014.7 |
| 20260905091709 | 65 | 15 | 0.0 | 2.0 | 0.00 | 0.00 | 0.00 | 88 | 1014.6 |
| 20260905091509 | 65 | 24 | 0.0 | 2.0 | 0.00 | 0.00 | 0.00 | 88 | 1014.5 |
| 20260905091308 | 65 | 24 | 0.0 | 3.0 | 0.00 | 0.00 | 0.00 | 89 | 1014.6 |
| 20260905091108 | 65 | 39 | 1.0 | 3.0 | 0.00 | 0.00 | 0.00 | 89 | 1014.6 |
| 20260905090908 | 65 | 33 | 0.0 | 3.0 | 0.00 | 0.00 | 0.00 | 89 | 1014.6 |
| 20260905090707 | 65 | 43 | 1.0 | 4.0 | 0.00 | 0.00 | 0.00 | 89 | 1014.5 |
| 20260905090507 | 65 | 37 | 1.0 | 4.0 | 0.00 | 0.00 | 0.00 | 89 | 1014.6 |
| 20260905090307 | 65 | 19 | 0.0 | 4.0 | 0.00 | 0.00 | 0.00 | 89 | 1014.5 |
| 20260905090106 | 65 | 8 | 1.0 | 4.0 | 0.00 | 0.00 | 0.00 | 89 | 1014.5 |
| 20260905085906 | 64 | 358 | 0.0 | 4.0 | 0.00 | 0.00 | 0.00 | 89 | 1014.4 |
| 20260905085706 | 64 | 358 | 0.0 | 3.0 | 0.00 | 0.00 | 0.00 | 90 | 1014.4 |
| 20260905085505 | 64 | 58 | 0.0 | 3.0 | 0.00 | 0.00 | 0.00 | 89 | 1014.4 |
| 20260905085306 | 64 | 60 | 0.0 | 1.0 | 0.00 | 0.00 | 0.00 | 90 | 1014.4 |
| 20260905085105 | 64 | 53 | 0.0 | 1.0 | 0.00 | 0.00 | 0.00 | 90 | 1014.3 |
| 20260905084904 | 64 | 45 | 0.0 | 2.0 | 0.00 | 0.00 | 0.00 | 90 | 1014.3 |
| 20260905084704 | 64 | 46 | 0.0 | 2.0 | 0.00 | 0.00 | 0.00 | 90 | 1014.3 |
| 20260905084504 | 64 | 46 | 0.0 | 2.0 | 0.00 | 0.00 | 0.00 | 89 | 1014.4 |
| 20260905084304 | 64 | 9 | 0.0 | 2.0 | 0.00 | 0.00 | 0.00 | 89 | 1014.3 |
| 20260905084103 | 64 | 352 | 0.0 | 2.0 | 0.00 | 0.00 | 0.00 | 89 | 1014.3 |
| 20260905083903 | 64 | 21 | 0.0 | 3.0 | 0.00 | 0.00 | 0.00 | 89 | 1014.3 |
| 20260905083703 | 64 | 41 | 0.0 | 3.0 | 0.00 | 0.00 | 0.00 | 89 | 1014.3 |
| 20260905083502 | 64 | 40 | 0.0 | 3.0 | 0.00 | 0.00 | 0.00 | 89 | 1014.3 |
| 20260905083302 | 64 | 40 | 0.0 | 3.0 | 0.00 | 0.00 | 0.00 | 89 | 1014.3 |
| 20260905083102 | 64 | 52 | 0.0 | 3.0 | 0.00 | 0.00 | 0.00 | 89 | 1014.2 |
| 20260905082901 | 64 | 17 | 1.0 | 3.0 | 0.00 | 0.00 | 0.00 | 89 | 1014.2 |
| 20260905082701 | 64 | 10 | 0.0 | 4.0 | 0.00 | 0.00 | 0.00 | 89 | 1014.2 |
| 20260905082501 | 64 | 53 | 0.0 | 4.0 | 0.00 | 0.00 | 0.00 | 89 | 1014.1 |
| 20260905082300 | 64 | 56 | 0.0 | 4.0 | 0.00 | 0.00 | 0.00 | 89 | 1014.1 |
| 20260905082100 | 64 | 39 | 0.0 | 4.0 | 0.00 | 0.00 | 0.00 | 89 | 1014.1 |
| 20260905081900 | 64 | 39 | 1.0 | 4.0 | 0.00 | 0.00 | 0.00 | 89 | 1014.1 |
| 20260905081659 | 64 | 47 | 1.0 | 4.0 | 0.00 | 0.00 | 0.00 | 89 | 1014.1 |
| 20260905081459 | 64 | 61 | 1.0 | 4.0 | 0.00 | 0.00 | 0.00 | 89 | 1014.0 |
| 20260905081259 | 64 | 46 | 1.0 | 4.0 | 0.00 | 0.00 | 0.00 | 89 | 1014.1 |
| 20260905081059 | 64 | 51 | 1.0 | 4.0 | 0.00 | 0.00 | 0.00 | 89 | 1014.1 |
| 20260905080859 | 64 | 48 | 1.0 | 4.0 | 0.00 | 0.00 | 0.00 | 89 | 1014.2 |
| 20260905080658 | 64 | 49 | 0.0 | 4.0 | 0.00 | 0.00 | 0.00 | 89 | 1014.0 |
| 20260905080458 | 64 | 43 | 1.0 | 4.0 | 0.00 | 0.00 | 0.00 | 89 | 1014.1 |
| 20260905080257 | 64 | 28 | 0.0 | 4.0 | 0.00 | 0.00 | 0.00 | 88 | 1014.1 |
| 20260905080057 | 64 | 30 | 0.0 | 4.0 | 0.00 | 0.00 | 0.00 | 88 | 1014.1 |
| 20260905075857 | 64 | 28 | 0.0 | 4.0 | 0.00 | 0.00 | 0.00 | 88 | 1014.1 |
| 20260905075656 | 64 | 30 | 0.0 | 4.0 | 0.00 | 0.00 | 0.00 | 88 | 1014.1 |
| 20260905075456 | 64 | 20 | 0.0 | 4.0 | 0.00 | 0.00 | 0.00 | 88 | 1014.0 |
| 20260905075256 | 64 | 21 | 1.0 | 4.0 | 0.00 | 0.00 | 0.00 | 88 | 1014.1 |
| 20260905075055 | 64 | 45 | 1.0 | 4.0 | 0.00 | 0.00 | 0.00 | 88 | 1014.1 |
| 20260905074855 | 64 | 43 | 1.0 | 3.0 | 0.00 | 0.00 | 0.00 | 88 | 1014.1 |
| 20260905074655 | 64 | 41 | 1.0 | 3.0 | 0.00 | 0.00 | 0.00 | 88 | 1014.1 |
| 20260905074454 | 64 | 36 | 1.0 | 3.0 | 0.00 | 0.00 | 0.00 | 88 | 1014.1 |
| 20260905074254 | 65 | 38 | 0.0 | 3.0 | 0.00 | 0.00 | 0.00 | 88 | 1014.2 |
| 20260905074054 | 65 | 38 | 0.0 | 3.0 | 0.00 | 0.00 | 0.00 | 87 | 1014.1 |
| 20260905073854 | 65 | 9 | 1.0 | 3.0 | 0.00 | 0.00 | 0.00 | 87 | 1014.2 |
| 20260905073653 | 65 | 11 | 1.0 | 3.0 | 0.00 | 0.00 | 0.00 | 87 | 1014.2 |
| 20260905073453 | 65 | 30 | 1.0 | 3.0 | 0.00 | 0.00 | 0.00 | 87 | 1014.2 |
| 20260905073253 | 65 | 41 | 1.0 | 4.0 | 0.00 | 0.00 | 0.00 | 87 | 1014.2 |
| 20260905073052 | 65 | 43 | 1.0 | 5.0 | 0.00 | 0.00 | 0.00 | 87 | 1014.1 |
| 20260905072852 | 65 | 7 | 1.0 | 5.0 | 0.00 | 0.00 | 0.00 | 87 | 1014.1 |
| 20260905072652 | 65 | 353 | 0.0 | 5.0 | 0.00 | 0.00 | 0.00 | 86 | 1014.1 |
| 20260905072451 | 65 | 18 | 1.0 | 5.0 | 0.00 | 0.00 | 0.00 | 86 | 1014.1 |
| 20260905072251 | 65 | 46 | 1.0 | 5.0 | 0.00 | 0.00 | 0.00 | 86 | 1014.0 |
| 20260905072051 | 65 | 52 | 1.0 | 4.0 | 0.00 | 0.00 | 0.00 | 86 | 1014.1 |
| 20260905071850 | 65 | 55 | 1.0 | 4.0 | 0.00 | 0.00 | 0.00 | 86 | 1014.1 |
| 20260905071650 | 65 | 28 | 1.0 | 4.0 | 0.00 | 0.00 | 0.00 | 86 | 1014.1 |
| 20260905071450 | 66 | 51 | 0.0 | 4.0 | 0.00 | 0.00 | 0.00 | 86 | 1014.1 |
| 20260905071249 | 66 | 62 | 0.0 | 4.0 | 0.00 | 0.00 | 0.00 | 86 | 1014.1 |
| 20260905071049 | 66 | 55 | 1.0 | 4.0 | 0.00 | 0.00 | 0.00 | 85 | 1014.0 |
| 20260905070849 | 66 | 45 | 1.0 | 5.0 | 0.00 | 0.00 | 0.00 | 85 | 1014.0 |
| 20260905070648 | 66 | 53 | 0.0 | 5.0 | 0.00 | 0.00 | 0.00 | 85 | 1014.1 |
| 20260905070448 | 66 | 44 | 1.0 | 5.0 | 0.00 | 0.00 | 0.00 | 85 | 1014.1 |
| 20260905070248 | 66 | 15 | 2.0 | 5.0 | 0.00 | 0.00 | 0.00 | 85 | 1014.1 |
| 20260905070048 | 66 | 40 | 2.0 | 5.0 | 0.00 | 0.00 | 0.00 | 84 | 1014.1 |
| 20260905065847 | 66 | 64 | 1.0 | 5.0 | 0.00 | 0.00 | 0.00 | 84 | 1014.1 |
| 20260905065647 | 66 | 64 | 1.0 | 5.0 | 0.00 | 0.00 | 0.00 | 84 | 1014.1 |
| 20260905065447 | 66 | 62 | 1.0 | 5.0 | 0.00 | 0.00 | 0.00 | 84 | 1014.1 |
| 20260905065246 | 66 | 56 | 2.0 | 5.0 | 0.00 | 0.00 | 0.00 | 84 | 1014.2 |
| 20260905065046 | 66 | 53 | 2.0 | 5.0 | 0.00 | 0.00 | 0.00 | 84 | 1014.2 |
| 20260905064846 | 66 | 48 | 1.0 | 6.0 | 0.00 | 0.00 | 0.00 | 84 | 1014.2 |
| 20260905064645 | 66 | 2 | 1.0 | 6.0 | 0.00 | 0.00 | 0.00 | 84 | 1014.2 |
| 20260905064445 | 67 | 25 | 2.0 | 6.0 | 0.00 | 0.00 | 0.00 | 84 | 1014.2 |
| 20260905064245 | 67 | 35 | 2.0 | 6.0 | 0.00 | 0.00 | 0.00 | 83 | 1014.2 |
| 20260905064044 | 67 | 16 | 1.0 | 6.0 | 0.00 | 0.00 | 0.00 | 83 | 1014.1 |
| 20260905063844 | 67 | 36 | 1.0 | 4.0 | 0.00 | 0.00 | 0.00 | 83 | 1014.2 |
| 20260905063644 | 67 | 67 | 1.0 | 5.0 | 0.00 | 0.00 | 0.00 | 83 | 1014.1 |
| 20260905063444 | 67 | 29 | 1.0 | 6.0 | 0.00 | 0.00 | 0.00 | 83 | 1014.1 |
| 20260905063243 | 67 | 16 | 1.0 | 6.0 | 0.00 | 0.00 | 0.00 | 83 | 1014.2 |
| 20260905063043 | 67 | 43 | 1.0 | 6.0 | 0.00 | 0.00 | 0.00 | 83 | 1014.1 |
| 20260905062843 | 67 | 33 | 2.0 | 6.0 | 0.00 | 0.00 | 0.00 | 83 | 1014.2 |
| 20260905062642 | 67 | 67 | 1.0 | 6.0 | 0.00 | 0.00 | 0.00 | 82 | 1014.2 |
| 20260905062442 | 67 | 66 | 2.0 | 5.0 | 0.00 | 0.00 | 0.00 | 82 | 1014.2 |
| 20260905062242 | 67 | 53 | 2.0 | 5.0 | 0.00 | 0.00 | 0.00 | 82 | 1014.2 |
| 20260905062041 | 67 | 45 | 2.0 | 5.0 | 0.00 | 0.00 | 0.00 | 82 | 1014.1 |
| 20260905061841 | 67 | 35 | 2.0 | 5.0 | 0.00 | 0.00 | 0.00 | 82 | 1014.1 |
| 20260905061641 | 67 | 48 | 1.0 | 4.0 | 0.00 | 0.00 | 0.00 | 82 | 1014.1 |
| 20260905061440 | 67 | 11 | 1.0 | 4.0 | 0.00 | 0.00 | 0.00 | 82 | 1014.1 |
| 20260905061240 | 67 | 351 | 1.0 | 4.0 | 0.00 | 0.00 | 0.00 | 82 | 1014.1 |
| 20260905061040 | 67 | 4 | 1.0 | 4.0 | 0.00 | 0.00 | 0.00 | 82 | 1014.2 |
| 20260905060840 | 66 | 48 | 0.0 | 4.0 | 0.00 | 0.00 | 0.00 | 82 | 1014.2 |
| 20260905060639 | 66 | 48 | 0.0 | 4.0 | 0.00 | 0.00 | 0.00 | 81 | 1014.3 |
| 20260905060439 | 66 | 31 | 1.0 | 4.0 | 0.00 | 0.00 | 0.00 | 81 | 1014.3 |
| 20260905060239 | 66 | 1 | 0.0 | 2.0 | 0.00 | 0.00 | 0.00 | 81 | 1014.3 |
| 20260905060038 | 66 | 4 | 0.0 | 2.0 | 0.00 | 0.00 | 0.00 | 81 | 1014.3 |
| 20260905055838 | 66 | 7 | 0.0 | 2.0 | 0.00 | 0.00 | 0.00 | 81 | 1014.3 |
| 20260905055638 | 66 | 15 | 0.0 | 2.0 | 0.00 | 0.00 | 0.00 | 81 | 1014.3 |
| 20260905055437 | 66 | 16 | 0.0 | 1.0 | 0.00 | 0.00 | 0.00 | 81 | 1014.4 |
| 20260905055237 | 66 | 16 | 0.0 | 1.0 | 0.00 | 0.00 | 0.00 | 81 | 1014.4 |
| 20260905055037 | 66 | 16 | 0.0 | 1.0 | 0.00 | 0.00 | 0.00 | 81 | 1014.4 |
| 20260905054836 | 66 | 16 | 0.0 | 1.0 | 0.00 | 0.00 | 0.00 | 81 | 1014.4 |
| 20260905054636 | 66 | 16 | 0.0 | 1.0 | 0.00 | 0.00 | 0.00 | 80 | 1014.4 |
| 20260905054436 | 66 | 19 | 0.0 | 2.0 | 0.00 | 0.00 | 0.00 | 81 | 1014.5 |
| 20260905054235 | 66 | 44 | 0.0 | 3.0 | 0.00 | 0.00 | 0.00 | 81 | 1014.5 |
| 20260905054035 | 66 | 44 | 0.0 | 3.0 | 0.00 | 0.00 | 0.00 | 81 | 1014.6 |
| 20260905053835 | 66 | 44 | 0.0 | 3.0 | 0.00 | 0.00 | 0.00 | 80 | 1014.6 |
| 20260905053634 | 66 | 42 | 0.0 | 3.0 | 0.00 | 0.00 | 0.00 | 80 | 1014.7 |
| 20260905053434 | 66 | 32 | 0.0 | 3.0 | 0.00 | 0.00 | 0.00 | 80 | 1014.7 |
| 20260905053234 | 66 | 32 | 0.0 | 2.0 | 0.00 | 0.00 | 0.00 | 80 | 1014.7 |
| 20260905053034 | 66 | 32 | 0.0 | 2.0 | 0.00 | 0.00 | 0.00 | 80 | 1014.7 |
| 20260905052833 | 66 | 32 | 0.0 | 2.0 | 0.00 | 0.00 | 0.00 | 80 | 1014.7 |
| 20260905052633 | 66 | 32 | 0.0 | 2.0 | 0.00 | 0.00 | 0.00 | 80 | 1014.7 |
| 20260905052433 | 66 | 40 | 0.0 | 2.0 | 0.00 | 0.00 | 0.00 | 80 | 1014.8 |
| 20260905052232 | 66 | 50 | 0.0 | 2.0 | 0.00 | 0.00 | 0.00 | 80 | 1014.8 |
| 20260905052032 | 66 | 51 | 0.0 | 2.0 | 0.00 | 0.00 | 0.00 | 80 | 1014.8 |
| 20260905051832 | 66 | 51 | 0.0 | 1.0 | 0.00 | 0.00 | 0.00 | 80 | 1014.8 |
| 20260905051631 | 66 | 51 | 0.0 | 1.0 | 0.00 | 0.00 | 0.00 | 80 | 1014.8 |
| 20260905051431 | 66 | 51 | 0.0 | 1.0 | 0.00 | 0.00 | 0.00 | 80 | 1014.9 |
| 20260905051231 | 66 | 51 | 0.0 | 2.0 | 0.00 | 0.00 | 0.00 | 80 | 1014.9 |
| 20260905051030 | 66 | 51 | 0.0 | 2.0 | 0.00 | 0.00 | 0.00 | 80 | 1014.8 |
| 20260905050830 | 66 | 51 | 0.0 | 2.0 | 0.00 | 0.00 | 0.00 | 80 | 1014.9 |
| 20260905050630 | 66 | 51 | 0.0 | 2.0 | 0.00 | 0.00 | 0.00 | 80 | 1014.9 |
| 20260905050430 | 66 | 51 | 0.0 | 2.0 | 0.00 | 0.00 | 0.00 | 80 | 1014.9 |
| 20260905050229 | 66 | 51 | 0.0 | 1.0 | 0.00 | 0.00 | 0.00 | 80 | 1014.9 |
| 20260905050029 | 66 | 51 | 0.0 | 1.0 | 0.00 | 0.00 | 0.00 | 80 | 1014.9 |
| 20260905045829 | 66 | 51 | 0.0 | 1.0 | 0.00 | 0.00 | 0.00 | 80 | 1014.9 |
| 20260905045628 | 66 | 0 | 0.0 | 1.0 | 0.00 | 0.00 | 0.00 | 80 | 1015.0 |
| 20260905045428 | 66 | 51 | 0.0 | 1.0 | 0.00 | 0.00 | 0.00 | 80 | 1014.9 |
| 20260905045228 | 66 | 51 | 0.0 | 1.0 | 0.00 | 0.00 | 0.00 | 80 | 1015.0 |
| 20260905045027 | 66 | 51 | 0.0 | 1.0 | 0.00 | 0.00 | 0.00 | 80 | 1015.0 |
| 20260905044827 | 66 | 0 | 0.0 | 1.0 | 0.00 | 0.00 | 0.00 | 80 | 1014.9 |
| 20260905044627 | 66 | 51 | 0.0 | 1.0 | 0.00 | 0.00 | 0.00 | 80 | 1014.9 |
| 20260905044426 | 66 | 51 | 0.0 | 1.0 | 0.00 | 0.00 | 0.00 | 79 | 1014.9 |
| 20260905044226 | 66 | 51 | 0.0 | 1.0 | 0.00 | 0.00 | 0.00 | 79 | 1015.0 |
| 20260905044026 | 66 | 51 | 0.0 | 2.0 | 0.00 | 0.00 | 0.00 | 79 | 1014.9 |
| 20260905043825 | 66 | 51 | 0.0 | 2.0 | 0.00 | 0.00 | 0.00 | 79 | 1015.0 |
| 20260905043625 | 66 | 51 | 0.0 | 2.0 | 0.00 | 0.00 | 0.00 | 79 | 1015.0 |
| 20260905043425 | 66 | 50 | 0.0 | 2.0 | 0.00 | 0.00 | 0.00 | 79 | 1014.9 |
| 20260905043225 | 66 | 48 | 0.0 | 1.0 | 0.00 | 0.00 | 0.00 | 79 | 1014.9 |
| 20260905043024 | 66 | 50 | 0.0 | 1.0 | 0.00 | 0.00 | 0.00 | 78 | 1014.9 |
| 20260905042824 | 66 | 52 | 0.0 | 2.0 | 0.00 | 0.00 | 0.00 | 78 | 1014.9 |
| 20260905042624 | 66 | 53 | 0.0 | 2.0 | 0.00 | 0.00 | 0.00 | 78 | 1014.9 |
| 20260905042423 | 67 | 55 | 0.0 | 2.0 | 0.00 | 0.00 | 0.00 | 78 | 1014.8 |
| 20260905042223 | 67 | 56 | 0.0 | 2.0 | 0.00 | 0.00 | 0.00 | 78 | 1014.8 |
| 20260905042023 | 67 | 47 | 0.0 | 4.0 | 0.00 | 0.00 | 0.00 | 78 | 1014.8 |
| 20260905041822 | 67 | 34 | 0.0 | 4.0 | 0.00 | 0.00 | 0.00 | 77 | 1014.8 |
| 20260905041622 | 67 | 34 | 0.0 | 4.0 | 0.00 | 0.00 | 0.00 | 77 | 1014.8 |
| 20260905041422 | 67 | 40 | 1.0 | 4.0 | 0.00 | 0.00 | 0.00 | 77 | 1014.9 |
| 20260905041221 | 67 | 40 | 1.0 | 4.0 | 0.00 | 0.00 | 0.00 | 77 | 1014.9 |
| 20260905041021 | 67 | 24 | 1.0 | 4.0 | 0.00 | 0.00 | 0.00 | 77 | 1014.9 |
| 20260905040821 | 67 | 36 | 1.0 | 4.0 | 0.00 | 0.00 | 0.00 | 77 | 1014.8 |
| 20260905040621 | 67 | 25 | 1.0 | 4.0 | 0.00 | 0.00 | 0.00 | 77 | 1014.8 |
| 20260905040420 | 67 | 29 | 1.0 | 4.0 | 0.00 | 0.00 | 0.00 | 77 | 1014.8 |
| 20260905040220 | 67 | 17 | 1.0 | 3.0 | 0.00 | 0.00 | 0.00 | 77 | 1014.8 |
| 20260905040020 | 67 | 360 | 1.0 | 3.0 | 0.00 | 0.00 | 0.00 | 77 | 1014.8 |
| 20260905035819 | 67 | 48 | 1.0 | 3.0 | 0.00 | 0.00 | 0.00 | 77 | 1014.8 |
| 20260905035619 | 67 | 43 | 1.0 | 3.0 | 0.00 | 0.00 | 0.00 | 77 | 1014.8 |
| 20260905035419 | 67 | 18 | 1.0 | 3.0 | 0.00 | 0.00 | 0.00 | 77 | 1014.8 |
| 20260905035218 | 67 | 351 | 0.0 | 3.0 | 0.00 | 0.00 | 0.00 | 77 | 1014.8 |
| 20260905035018 | 67 | 351 | 0.0 | 3.0 | 0.00 | 0.00 | 0.00 | 77 | 1014.8 |
| 20260905034818 | 67 | 351 | 0.0 | 3.0 | 0.00 | 0.00 | 0.00 | 77 | 1014.8 |
| 20260905034617 | 67 | 351 | 0.0 | 3.0 | 0.00 | 0.00 | 0.00 | 77 | 1014.8 |
| 20260905034417 | 67 | 348 | 0.0 | 3.0 | 0.00 | 0.00 | 0.00 | 77 | 1014.8 |
| 20260905034217 | 67 | 344 | 0.0 | 2.0 | 0.00 | 0.00 | 0.00 | 77 | 1014.8 |
| 20260905034016 | 67 | 344 | 0.0 | 2.0 | 0.00 | 0.00 | 0.00 | 77 | 1014.7 |
| 20260905033816 | 67 | 343 | 0.0 | 2.0 | 0.00 | 0.00 | 0.00 | 77 | 1014.8 |
| 20260905033616 | 68 | 343 | 0.0 | 1.0 | 0.00 | 0.00 | 0.00 | 77 | 1014.8 |
| 20260905033416 | 68 | 0 | 0.0 | 1.0 | 0.00 | 0.00 | 0.00 | 76 | 1014.9 |
| 20260905033215 | 68 | 343 | 0.0 | 1.0 | 0.00 | 0.00 | 0.00 | 76 | 1014.9 |
| 20260905033015 | 68 | 0 | 0.0 | 1.0 | 0.00 | 0.00 | 0.00 | 76 | 1014.9 |
| 20260905032815 | 68 | 343 | 0.0 | 1.0 | 0.00 | 0.00 | 0.00 | 76 | 1015.0 |
| 20260905032614 | 68 | 343 | 0.0 | 2.0 | 0.00 | 0.00 | 0.00 | 76 | 1015.0 |
| 20260905032414 | 68 | 343 | 0.0 | 2.0 | 0.00 | 0.00 | 0.00 | 76 | 1015.0 |
| 20260905032214 | 68 | 345 | 0.0 | 2.0 | 0.00 | 0.00 | 0.00 | 76 | 1015.0 |
| 20260905032013 | 68 | 350 | 0.0 | 2.0 | 0.00 | 0.00 | 0.00 | 76 | 1015.0 |
| 20260905031813 | 68 | 348 | 0.0 | 2.0 | 0.00 | 0.00 | 0.00 | 76 | 1015.0 |
| 20260905031613 | 68 | 346 | 0.0 | 2.0 | 0.00 | 0.00 | 0.00 | 76 | 1015.0 |
| 20260905031412 | 68 | 346 | 0.0 | 2.0 | 0.00 | 0.00 | 0.00 | 76 | 1015.0 |
| 20260905031212 | 68 | 346 | 0.0 | 1.0 | 0.00 | 0.00 | 0.00 | 76 | 1014.9 |
| 20260905031012 | 68 | 346 | 0.0 | 1.0 | 0.00 | 0.00 | 0.00 | 75 | 1015.0 |
| 20260905030811 | 68 | 0 | 0.0 | 2.0 | 0.00 | 0.00 | 0.00 | 75 | 1014.9 |
| 20260905030611 | 68 | 25 | 0.0 | 2.0 | 0.00 | 0.00 | 0.00 | 75 | 1014.9 |
| 20260905030411 | 68 | 25 | 0.0 | 2.0 | 0.00 | 0.00 | 0.00 | 75 | 1014.9 |
| 20260905030211 | 68 | 34 | 1.0 | 2.0 | 0.00 | 0.00 | 0.00 | 75 | 1014.9 |
| 20260905030010 | 69 | 38 | 0.0 | 2.0 | 0.00 | 0.00 | 0.00 | 75 | 1014.8 |
| 20260905025810 | 69 | 38 | 0.0 | 2.0 | 0.00 | 0.00 | 0.00 | 75 | 1014.8 |
| 20260905025610 | 69 | 33 | 0.0 | 2.0 | 0.00 | 0.00 | 0.00 | 75 | 1014.8 |
| 20260905025409 | 69 | 31 | 0.0 | 2.0 | 0.00 | 0.00 | 0.00 | 75 | 1014.8 |
| 20260905025209 | 69 | 32 | 0.0 | 2.0 | 0.00 | 0.00 | 0.00 | 75 | 1014.8 |
| 20260905025009 | 69 | 32 | 1.0 | 2.0 | 0.00 | 0.00 | 0.00 | 75 | 1014.8 |
| 20260905024808 | 69 | 32 | 0.0 | 2.0 | 0.00 | 0.00 | 0.00 | 75 | 1014.8 |
| 20260905024608 | 69 | 34 | 0.0 | 2.0 | 0.00 | 0.00 | 0.00 | 75 | 1014.8 |
| 20260905024408 | 69 | 30 | 0.0 | 2.0 | 0.00 | 0.00 | 0.00 | 75 | 1014.8 |
| 20260905024207 | 69 | 23 | 0.0 | 2.0 | 0.00 | 0.00 | 0.00 | 75 | 1014.7 |
| 20260905024007 | 69 | 360 | 0.0 | 2.0 | 0.00 | 0.00 | 0.00 | 75 | 1014.8 |
| 20260905023807 | 69 | 355 | 1.0 | 4.0 | 0.00 | 0.00 | 0.00 | 75 | 1014.7 |
| 20260905023606 | 69 | 355 | 1.0 | 4.0 | 0.00 | 0.00 | 0.00 | 75 | 1014.7 |
| 20260905023406 | 69 | 355 | 0.0 | 4.0 | 0.00 | 0.00 | 0.00 | 75 | 1014.7 |
| 20260905023206 | 69 | 354 | 1.0 | 4.0 | 0.00 | 0.00 | 0.00 | 75 | 1014.7 |
| 20260905023005 | 69 | 354 | 1.0 | 4.0 | 0.00 | 0.00 | 0.00 | 75 | 1014.8 |
| 20260905022805 | 69 | 25 | 0.0 | 3.0 | 0.00 | 0.00 | 0.00 | 75 | 1014.8 |
| 20260905022605 | 69 | 25 | 0.0 | 3.0 | 0.00 | 0.00 | 0.00 | 75 | 1014.8 |
| 20260905022405 | 70 | 25 | 0.0 | 3.0 | 0.00 | 0.00 | 0.00 | 75 | 1014.9 |
| 20260905022204 | 70 | 26 | 0.0 | 3.0 | 0.00 | 0.00 | 0.00 | 75 | 1014.8 |
| 20260905022004 | 70 | 26 | 0.0 | 2.0 | 0.00 | 0.00 | 0.00 | 75 | 1014.9 |
| 20260905021804 | 70 | 26 | 0.0 | 2.0 | 0.00 | 0.00 | 0.00 | 75 | 1014.9 |
| 20260905021603 | 70 | 24 | 0.0 | 3.0 | 0.00 | 0.00 | 0.00 | 75 | 1014.9 |
| 20260905021403 | 70 | 18 | 0.0 | 3.0 | 0.00 | 0.00 | 0.00 | 75 | 1014.9 |
| 20260905021203 | 70 | 26 | 1.0 | 3.0 | 0.00 | 0.00 | 0.00 | 75 | 1014.9 |
| 20260905021002 | 70 | 34 | 0.0 | 3.0 | 0.00 | 0.00 | 0.00 | 75 | 1014.9 |
| 20260905020802 | 70 | 17 | 1.0 | 3.0 | 0.00 | 0.00 | 0.00 | 75 | 1014.9 |
| 20260905020602 | 70 | 11 | 0.0 | 3.0 | 0.00 | 0.00 | 0.00 | 75 | 1014.9 |
| 20260905020401 | 70 | 21 | 1.0 | 3.0 | 0.00 | 0.00 | 0.00 | 75 | 1014.8 |
| 20260905020201 | 71 | 26 | 0.0 | 6.0 | 0.00 | 0.00 | 0.00 | 75 | 1014.8 |
| 20260905020001 | 71 | 26 | 0.0 | 6.0 | 0.00 | 0.00 | 0.00 | 75 | 1014.7 |
| 20260905015801 | 71 | 23 | 1.0 | 6.0 | 0.00 | 0.00 | 0.00 | 75 | 1014.7 |
| 20260905015600 | 71 | 20 | 1.0 | 6.0 | 0.00 | 0.00 | 0.00 | 74 | 1014.7 |
| 20260905015400 | 71 | 25 | 1.0 | 6.0 | 0.00 | 0.00 | 0.00 | 74 | 1014.7 |
| 20260905015200 | 71 | 29 | 1.0 | 6.0 | 0.00 | 0.00 | 0.00 | 74 | 1014.7 |
| 20260905014959 | 71 | 360 | 2.0 | 5.0 | 0.00 | 0.00 | 0.00 | 74 | 1014.7 |
| 20260905014759 | 71 | 20 | 1.0 | 5.0 | 0.00 | 0.00 | 0.00 | 74 | 1014.7 |
| 20260905014559 | 71 | 35 | 1.0 | 3.0 | 0.00 | 0.00 | 0.00 | 74 | 1014.7 |
| 20260905014358 | 71 | 43 | 1.0 | 3.0 | 0.00 | 0.00 | 0.00 | 74 | 1014.7 |
| 20260905014158 | 71 | 42 | 1.0 | 3.0 | 0.00 | 0.00 | 0.00 | 74 | 1014.7 |
| 20260905013958 | 71 | 52 | 0.0 | 3.0 | 0.00 | 0.00 | 0.00 | 75 | 1014.7 |
| 20260905013757 | 71 | 44 | 1.0 | 4.0 | 0.00 | 0.00 | 0.00 | 74 | 1014.7 |
| 20260905013557 | 71 | 15 | 1.0 | 5.0 | 0.00 | 0.00 | 0.00 | 75 | 1014.7 |
| 20260905013357 | 71 | 17 | 1.0 | 5.0 | 0.00 | 0.00 | 0.00 | 74 | 1014.8 |
| 20260905013157 | 71 | 29 | 1.0 | 5.0 | 0.00 | 0.00 | 0.00 | 74 | 1014.8 |
| 20260905012956 | 71 | 29 | 2.0 | 5.0 | 0.00 | 0.00 | 0.00 | 75 | 1014.8 |
| 20260905012756 | 72 | 30 | 1.0 | 5.0 | 0.00 | 0.00 | 0.00 | 75 | 1014.8 |
| 20260905012556 | 72 | 31 | 1.0 | 5.0 | 0.00 | 0.00 | 0.00 | 75 | 1014.8 |
| 20260905012355 | 72 | 27 | 1.0 | 5.0 | 0.00 | 0.00 | 0.00 | 75 | 1014.9 |
| 20260905012155 | 72 | 42 | 2.0 | 5.0 | 0.00 | 0.00 | 0.00 | 75 | 1014.8 |
| 20260905011955 | 72 | 38 | 2.0 | 5.0 | 0.00 | 0.00 | 0.00 | 75 | 1014.8 |
| 20260905011754 | 72 | 25 | 2.0 | 5.0 | 0.00 | 0.00 | 0.00 | 75 | 1014.9 |
| 20260905011554 | 72 | 24 | 2.0 | 6.0 | 0.00 | 0.00 | 0.00 | 75 | 1014.9 |
| 20260905011354 | 72 | 42 | 1.0 | 6.0 | 0.00 | 0.00 | 0.00 | 75 | 1014.8 |
| 20260905011153 | 72 | 30 | 2.0 | 6.0 | 0.00 | 0.00 | 0.00 | 76 | 1014.9 |
| 20260905010953 | 72 | 39 | 2.0 | 6.0 | 0.00 | 0.00 | 0.00 | 76 | 1014.9 |
| 20260905010753 | 72 | 32 | 2.0 | 5.0 | 0.00 | 0.00 | 0.00 | 77 | 1014.9 |
| 20260905010552 | 72 | 14 | 2.0 | 5.0 | 0.00 | 0.00 | 0.00 | 77 | 1014.9 |
| 20260905010352 | 72 | 9 | 1.0 | 5.0 | 0.00 | 0.00 | 0.00 | 78 | 1014.9 |
| 20260905010152 | 72 | 10 | 1.0 | 4.0 | 0.00 | 0.00 | 0.00 | 78 | 1014.9 |
| 20260905005952 | 72 | 27 | 2.0 | 4.0 | 0.00 | 0.00 | 0.00 | 78 | 1014.8 |
| 20260905005751 | 72 | 21 | 1.0 | 4.0 | 0.00 | 0.00 | 0.00 | 78 | 1014.8 |
| 20260905005551 | 72 | 355 | 1.0 | 4.0 | 0.00 | 0.00 | 0.00 | 78 | 1014.7 |
| 20260905005351 | 72 | 344 | 1.0 | 4.0 | 0.00 | 0.00 | 0.00 | 78 | 1014.8 |
| 20260905005150 | 72 | 328 | 0.0 | 3.0 | 0.00 | 0.00 | 0.00 | 78 | 1014.8 |
| 20260905004950 | 72 | 343 | 1.0 | 3.0 | 0.00 | 0.00 | 0.00 | 78 | 1014.8 |
| 20260905004750 | 72 | 350 | 0.0 | 3.0 | 0.00 | 0.00 | 0.00 | 79 | 1014.7 |
| 20260905004549 | 72 | 344 | 1.0 | 3.0 | 0.00 | 0.00 | 0.00 | 79 | 1014.7 |
| 20260905004349 | 72 | 270 | 0.0 | 3.0 | 0.00 | 0.00 | 0.00 | 79 | 1014.7 |
| 20260905004149 | 72 | 269 | 0.0 | 2.0 | 0.00 | 0.00 | 0.00 | 79 | 1014.7 |
| 20260905003948 | 72 | 268 | 0.0 | 2.0 | 0.00 | 0.00 | 0.00 | 79 | 1014.7 |
| 20260905003748 | 72 | 0 | 0.0 | 1.0 | 0.00 | 0.00 | 0.00 | 78 | 1014.7 |
| 20260905003548 | 72 | 255 | 0.0 | 1.0 | 0.00 | 0.00 | 0.00 | 78 | 1014.7 |
| 20260905003347 | 72 | 255 | 0.0 | 1.0 | 0.00 | 0.00 | 0.00 | 78 | 1014.8 |
| 20260905003147 | 72 | 255 | 0.0 | 1.0 | 0.00 | 0.00 | 0.00 | 78 | 1014.8 |
| 20260905002947 | 72 | 0 | 0.0 | 1.0 | 0.00 | 0.00 | 0.00 | 79 | 1014.7 |
| 20260905002747 | 72 | 0 | 0.0 | 1.0 | 0.00 | 0.00 | 0.00 | 78 | 1014.7 |
| 20260905002546 | 72 | 255 | 0.0 | 1.0 | 0.00 | 0.00 | 0.00 | 78 | 1014.6 |
| 20260905002346 | 72 | 255 | 0.0 | 1.0 | 0.00 | 0.00 | 0.00 | 78 | 1014.6 |
| 20260905002146 | 72 | 0 | 0.0 | 1.0 | 0.00 | 0.00 | 0.00 | 78 | 1014.5 |
| 20260905001945 | 72 | 255 | 0.0 | 1.0 | 0.00 | 0.00 | 0.00 | 78 | 1014.4 |
| 20260905001745 | 72 | 255 | 0.0 | 1.0 | 0.00 | 0.00 | 0.00 | 78 | 1014.4 |
| 20260905001545 | 72 | 255 | 0.0 | 1.0 | 0.00 | 0.00 | 0.00 | 78 | 1014.4 |
| 20260905001344 | 72 | 0 | 0.0 | 1.0 | 0.00 | 0.00 | 0.00 | 78 | 1014.3 |
| 20260905001144 | 72 | 255 | 0.0 | 1.0 | 0.00 | 0.00 | 0.00 | 78 | 1014.3 |
| 20260905000944 | 72 | 0 | 0.0 | 1.0 | 0.00 | 0.00 | 0.00 | 78 | 1014.3 |
| 20260905000743 | 72 | 255 | 0.0 | 1.0 | 0.00 | 0.00 | 0.00 | 78 | 1014.3 |
| 20260905000543 | 72 | 255 | 0.0 | 1.0 | 0.00 | 0.00 | 0.00 | 78 | 1014.3 |
| 20260905000343 | 72 | 255 | 0.0 | 1.0 | 0.00 | 0.00 | 0.00 | 78 | 1014.2 |
| 20260905000143 | 73 | 255 | 0.0 | 1.0 | 0.00 | 0.00 | 0.00 | 78 | 1014.2 |
| 20260904235942 | 73 | 254 | 0.0 | 1.0 | 0.00 | 0.00 | 0.00 | 78 | 1014.2 |
| 20260904235742 | 73 | 232 | 0.0 | 1.0 | 0.00 | 0.00 | 0.00 | 77 | 1014.2 |
| 20260904235542 | 73 | 0 | 0.0 | 1.0 | 0.00 | 0.00 | 0.00 | 78 | 1014.1 |
| 20260904235341 | 73 | 167 | 0.0 | 1.0 | 0.00 | 0.00 | 0.00 | 78 | 1014.1 |
| 20260904235141 | 73 | 163 | 0.0 | 1.0 | 0.00 | 0.00 | 0.00 | 77 | 1014.0 |
| 20260904234941 | 73 | 163 | 0.0 | 1.0 | 0.00 | 0.00 | 0.00 | 77 | 1014.1 |
| 20260904234740 | 73 | 109 | 0.0 | 1.0 | 0.00 | 0.00 | 0.00 | 77 | 1014.0 |
| 20260904234540 | 73 | 109 | 0.0 | 1.0 | 0.00 | 0.00 | 0.00 | 77 | 1013.9 |
| 20260904234340 | 73 | 0 | 0.0 | 1.0 | 0.00 | 0.00 | 0.00 | 76 | 1013.9 |
| 20260904234139 | 73 | 0 | 0.0 | 0.0 | 0.00 | 0.00 | 0.00 | 76 | 1013.9 |
| 20260904233939 | 73 | 0 | 0.0 | 0.0 | 0.00 | 0.00 | 0.00 | 76 | 1013.9 |
| 20260904233739 | 73 | 0 | 0.0 | 0.0 | 0.00 | 0.00 | 0.00 | 76 | 1014.0 |
| 20260904233538 | 73 | 0 | 0.0 | 0.0 | 0.00 | 0.00 | 0.00 | 75 | 1014.0 |
| 20260904233338 | 73 | 0 | 0.0 | 0.0 | 0.00 | 0.00 | 0.00 | 75 | 1013.9 |
| 20260904233138 | 74 | 0 | 0.0 | 0.0 | 0.00 | 0.00 | 0.00 | 75 | 1013.9 |
| 20260904232938 | 74 | 0 | 0.0 | 0.0 | 0.00 | 0.00 | 0.00 | 75 | 1013.9 |
| 20260904232737 | 74 | 0 | 0.0 | 0.0 | 0.00 | 0.00 | 0.00 | 75 | 1013.9 |
| 20260904232537 | 74 | 0 | 0.0 | 0.0 | 0.00 | 0.00 | 0.00 | 74 | 1013.9 |
| 20260904232337 | 74 | 0 | 0.0 | 0.0 | 0.00 | 0.00 | 0.00 | 74 | 1013.8 |
| 20260904232136 | 74 | 0 | 0.0 | 1.0 | 0.00 | 0.00 | 0.00 | 74 | 1013.7 |
| 20260904231936 | 74 | 0 | 0.0 | 1.0 | 0.00 | 0.00 | 0.00 | 74 | 1013.8 |
| 20260904231736 | 74 | 0 | 0.0 | 1.0 | 0.00 | 0.00 | 0.00 | 74 | 1013.7 |
| 20260904231535 | 74 | 0 | 0.0 | 1.0 | 0.00 | 0.00 | 0.00 | 74 | 1013.7 |
| 20260904231335 | 74 | 109 | 0.0 | 1.0 | 0.00 | 0.00 | 0.00 | 74 | 1013.7 |
| 20260904231135 | 74 | 109 | 0.0 | 1.0 | 0.00 | 0.00 | 0.00 | 74 | 1013.7 |
| 20260904230934 | 74 | 109 | 0.0 | 1.0 | 0.00 | 0.00 | 0.00 | 74 | 1013.7 |
| 20260904230734 | 74 | 109 | 0.0 | 1.0 | 0.00 | 0.00 | 0.00 | 74 | 1013.8 |
| 20260904230534 | 74 | 109 | 0.0 | 1.0 | 0.00 | 0.00 | 0.00 | 74 | 1013.7 |
| 20260904230334 | 74 | 109 | 0.0 | 1.0 | 0.00 | 0.00 | 0.00 | 74 | 1013.7 |
| 20260904230133 | 74 | 109 | 0.0 | 1.0 | 0.00 | 0.00 | 0.00 | 74 | 1013.7 |
| 20260904225933 | 74 | 109 | 0.0 | 1.0 | 0.00 | 0.06 | 0.00 | 74 | 1013.8 |
| 20260904225733 | 74 | 0 | 0.0 | 1.0 | 0.00 | 0.06 | 0.00 | 74 | 1013.7 |
| 20260904225532 | 74 | 114 | 0.0 | 1.0 | 0.00 | 0.06 | 0.00 | 74 | 1013.7 |
| 20260904225332 | 74 | 114 | 0.0 | 1.0 | 0.00 | 0.06 | 0.00 | 74 | 1013.7 |
| 20260904225132 | 74 | 0 | 0.0 | 1.0 | 0.00 | 0.06 | 0.00 | 74 | 1013.7 |
| 20260904224931 | 74 | 114 | 0.0 | 1.0 | 0.00 | 0.06 | 0.00 | 74 | 1013.8 |
| 20260904224731 | 74 | 0 | 0.0 | 1.0 | 0.00 | 0.06 | 0.00 | 74 | 1013.9 |
| 20260904224531 | 74 | 114 | 0.0 | 1.0 | 0.00 | 0.06 | 0.00 | 74 | 1013.9 |
| 20260904224330 | 74 | 114 | 0.0 | 1.0 | 0.00 | 0.06 | 0.00 | 74 | 1014.0 |
| 20260904224130 | 74 | 114 | 0.0 | 1.0 | 0.00 | 0.06 | 0.00 | 74 | 1014.0 |
| 20260904223930 | 74 | 0 | 0.0 | 1.0 | 0.00 | 0.06 | 0.00 | 74 | 1014.0 |
| 20260904223729 | 74 | 114 | 0.0 | 1.0 | 0.00 | 0.06 | 0.00 | 73 | 1013.9 |
| 20260904223529 | 74 | 114 | 0.0 | 1.0 | 0.00 | 0.06 | 0.00 | 74 | 1013.8 |
| 20260904223329 | 74 | 113 | 0.0 | 1.0 | 0.00 | 0.06 | 0.00 | 73 | 1013.7 |
| 20260904223129 | 74 | 109 | 0.0 | 1.0 | 0.00 | 0.06 | 0.00 | 73 | 1013.7 |
| 20260904222928 | 74 | 89 | 0.0 | 1.0 | 0.00 | 0.06 | 0.00 | 74 | 1013.7 |
| 20260904222728 | 74 | 49 | 0.0 | 1.0 | 0.00 | 0.06 | 0.00 | 73 | 1013.6 |
| 20260904222528 | 74 | 49 | 0.0 | 1.0 | 0.00 | 0.06 | 0.00 | 73 | 1013.5 |
| 20260904222327 | 74 | 49 | 0.0 | 1.0 | 0.00 | 0.06 | 0.00 | 73 | 1013.5 |
| 20260904222127 | 74 | 49 | 0.0 | 1.0 | 0.00 | 0.06 | 0.00 | 73 | 1013.5 |
| 20260904221927 | 74 | 49 | 0.0 | 1.0 | 0.00 | 0.06 | 0.00 | 73 | 1013.5 |
| 20260904221726 | 74 | 49 | 0.0 | 1.0 | 0.00 | 0.06 | 0.00 | 73 | 1013.5 |
| 20260904221526 | 74 | 49 | 0.0 | 1.0 | 0.00 | 0.06 | 0.00 | 73 | 1013.4 |
| 20260904221326 | 74 | 49 | 0.0 | 1.0 | 0.00 | 0.06 | 0.00 | 73 | 1013.5 |
| 20260904221125 | 74 | 49 | 0.0 | 1.0 | 0.00 | 0.06 | 0.00 | 72 | 1013.5 |
| 20260904220925 | 74 | 49 | 0.0 | 1.0 | 0.00 | 0.06 | 0.00 | 72 | 1013.6 |
| 20260904220725 | 74 | 49 | 0.0 | 1.0 | 0.00 | 0.06 | 0.00 | 73 | 1013.5 |
| 20260904220525 | 74 | 49 | 0.0 | 3.0 | 0.00 | 0.06 | 0.00 | 72 | 1013.5 |
| 20260904220324 | 74 | 49 | 0.0 | 3.0 | 0.00 | 0.06 | 0.00 | 72 | 1013.5 |
| 20260904220124 | 74 | 0 | 0.0 | 3.0 | 0.00 | 0.06 | 0.00 | 72 | 1013.5 |
| 20260904215924 | 74 | 105 | 0.0 | 3.0 | 0.00 | 0.06 | 0.00 | 72 | 1013.5 |
| 20260904215723 | 74 | 71 | 1.0 | 3.0 | 0.00 | 0.06 | 0.00 | 72 | 1013.5 |
| 20260904215523 | 75 | 64 | 0.0 | 3.0 | 0.00 | 0.06 | 0.00 | 72 | 1013.6 |
| 20260904215323 | 75 | 94 | 0.0 | 2.0 | 0.00 | 0.06 | 0.00 | 72 | 1013.6 |
| 20260904215122 | 75 | 115 | 0.0 | 3.0 | 0.00 | 0.06 | 0.00 | 71 | 1013.5 |
| 20260904214922 | 75 | 134 | 0.0 | 4.0 | 0.00 | 0.06 | 0.00 | 71 | 1013.5 |
| 20260904214722 | 75 | 112 | 0.0 | 4.0 | 0.00 | 0.06 | 0.00 | 71 | 1013.4 |
| 20260904214521 | 75 | 101 | 0.0 | 4.0 | 0.00 | 0.06 | 0.00 | 71 | 1013.4 |
| 20260904214321 | 75 | 151 | 0.0 | 4.0 | 0.00 | 0.06 | 0.00 | 71 | 1013.3 |
| 20260904214121 | 75 | 250 | 0.0 | 4.0 | 0.00 | 0.06 | 0.00 | 71 | 1013.3 |
| 20260904213920 | 75 | 289 | 0.0 | 2.0 | 0.00 | 0.06 | 0.00 | 71 | 1013.3 |
| 20260904213720 | 75 | 232 | 0.0 | 2.0 | 0.00 | 0.06 | 0.00 | 70 | 1013.4 |
| 20260904213520 | 75 | 146 | 0.0 | 2.0 | 0.00 | 0.06 | 0.00 | 70 | 1013.3 |
| 20260904213320 | 76 | 105 | 0.0 | 2.0 | 0.00 | 0.06 | 0.00 | 69 | 1013.3 |
| 20260904213119 | 76 | 44 | 0.0 | 2.0 | 0.00 | 0.06 | 0.00 | 70 | 1013.3 |
| 20260904212919 | 76 | 43 | 0.0 | 1.0 | 0.00 | 0.06 | 0.00 | 70 | 1013.3 |
| 20260904212719 | 76 | 0 | 0.0 | 1.0 | 0.00 | 0.06 | 0.00 | 69 | 1013.2 |
| 20260904212518 | 76 | 30 | 0.0 | 1.0 | 0.00 | 0.06 | 0.00 | 69 | 1013.2 |
| 20260904212318 | 76 | 30 | 0.0 | 1.0 | 0.00 | 0.06 | 0.00 | 70 | 1013.1 |
| 20260904212118 | 76 | 30 | 0.0 | 1.0 | 0.00 | 0.06 | 0.00 | 70 | 1013.1 |
| 20260904211917 | 76 | 30 | 0.0 | 1.0 | 0.00 | 0.06 | 0.00 | 69 | 1013.1 |
| 20260904211717 | 76 | 30 | 0.0 | 1.0 | 0.00 | 0.06 | 0.00 | 69 | 1013.1 |
| 20260904211517 | 76 | 30 | 0.0 | 1.0 | 0.00 | 0.06 | 0.00 | 69 | 1013.0 |
| 20260904211316 | 76 | 0 | 0.0 | 1.0 | 0.00 | 0.06 | 0.00 | 69 | 1013.1 |
| 20260904211116 | 76 | 30 | 0.0 | 1.0 | 0.00 | 0.06 | 0.00 | 69 | 1013.1 |
| 20260904210916 | 76 | 30 | 0.0 | 1.0 | 0.00 | 0.06 | 0.00 | 69 | 1013.2 |
| 20260904210715 | 76 | 31 | 0.0 | 1.0 | 0.00 | 0.06 | 0.00 | 69 | 1013.2 |
| 20260904210515 | 76 | 31 | 0.0 | 1.0 | 0.00 | 0.06 | 0.00 | 70 | 1013.3 |
| 20260904210315 | 76 | 36 | 0.0 | 1.0 | 0.00 | 0.06 | 0.00 | 70 | 1013.3 |
| 20260904210115 | 76 | 58 | 0.0 | 1.0 | 0.00 | 0.06 | 0.00 | 70 | 1013.2 |
| 20260904205914 | 76 | 68 | 0.0 | 1.0 | 0.00 | 0.06 | 0.00 | 70 | 1013.2 |
| 20260904205714 | 76 | 71 | 0.0 | 1.0 | 0.00 | 0.06 | 0.00 | 70 | 1013.3 |
| 20260904205514 | 76 | 72 | 0.0 | 2.0 | 0.00 | 0.06 | 0.00 | 70 | 1013.3 |
| 20260904205313 | 76 | 71 | 0.0 | 2.0 | 0.00 | 0.06 | 0.00 | 71 | 1013.3 |
| 20260904205113 | 76 | 72 | 0.0 | 2.0 | 0.00 | 0.06 | 0.00 | 70 | 1013.3 |
| 20260904204913 | 76 | 68 | 0.0 | 2.0 | 0.00 | 0.06 | 0.00 | 71 | 1013.2 |
| 20260904204712 | 76 | 48 | 0.0 | 2.0 | 0.00 | 0.06 | 0.00 | 71 | 1013.2 |
| 20260904204512 | 76 | 33 | 0.0 | 2.0 | 0.00 | 0.06 | 0.00 | 71 | 1013.2 |
| 20260904204312 | 76 | 33 | 0.0 | 2.0 | 0.00 | 0.06 | 0.00 | 72 | 1013.2 |
| 20260904204111 | 76 | 33 | 0.0 | 2.0 | 0.00 | 0.06 | 0.00 | 71 | 1013.2 |
| 20260904203911 | 76 | 33 | 0.0 | 5.0 | 0.00 | 0.06 | 0.00 | 72 | 1013.3 |
| 20260904203711 | 76 | 33 | 0.0 | 5.0 | 0.00 | 0.06 | 0.00 | 72 | 1013.4 |
| 20260904203511 | 76 | 33 | 0.0 | 5.0 | 0.00 | 0.06 | 0.00 | 72 | 1013.4 |
| 20260904203310 | 76 | 18 | 1.0 | 5.0 | 0.00 | 0.06 | 0.00 | 72 | 1013.4 |
| 20260904203110 | 76 | 11 | 1.0 | 5.0 | 0.00 | 0.06 | 0.00 | 71 | 1013.5 |
| 20260904202910 | 76 | 70 | 0.0 | 1.0 | 0.00 | 0.06 | 0.00 | 72 | 1013.6 |
| 20260904202709 | 76 | 70 | 0.0 | 1.0 | 0.00 | 0.06 | 0.00 | 72 | 1013.6 |
| 20260904202509 | 75 | 70 | 0.0 | 2.0 | 0.00 | 0.06 | 0.00 | 72 | 1013.5 |
| 20260904202309 | 75 | 70 | 0.0 | 2.0 | 0.00 | 0.06 | 0.00 | 72 | 1013.5 |
| 20260904202108 | 75 | 70 | 0.0 | 4.0 | 0.00 | 0.06 | 0.00 | 72 | 1013.5 |
| 20260904201908 | 75 | 70 | 0.0 | 4.0 | 0.00 | 0.06 | 0.00 | 73 | 1013.6 |
| 20260904201708 | 75 | 71 | 0.0 | 4.0 | 0.00 | 0.06 | 0.00 | 72 | 1013.7 |
| 20260904201507 | 75 | 41 | 1.0 | 4.0 | 0.00 | 0.06 | 0.00 | 72 | 1013.8 |
| 20260904201307 | 75 | 37 | 1.0 | 4.0 | 0.00 | 0.06 | 0.00 | 72 | 1013.9 |
| 20260904201107 | 76 | 114 | 1.0 | 4.0 | 0.00 | 0.06 | 0.00 | 72 | 1014.0 |
| 20260904200906 | 76 | 330 | 0.0 | 4.0 | 0.00 | 0.06 | 0.00 | 73 | 1014.0 |
| 20260904200706 | 76 | 326 | 0.0 | 2.0 | 0.00 | 0.06 | 0.00 | 72 | 1014.0 |
| 20260904200506 | 76 | 324 | 0.0 | 4.0 | 0.00 | 0.06 | 0.00 | 72 | 1014.1 |
| 20260904200306 | 76 | 319 | 0.0 | 4.0 | 0.00 | 0.06 | 0.00 | 73 | 1013.9 |
| 20260904200105 | 76 | 1 | 0.0 | 4.0 | 0.00 | 0.06 | 0.00 | 73 | 1014.0 |
| 20260904195905 | 76 | 66 | 1.0 | 4.0 | 0.00 | 0.06 | 0.00 | 72 | 1014.1 |
| 20260904195705 | 76 | 27 | 1.0 | 6.0 | 0.00 | 0.06 | 0.00 | 72 | 1014.0 |
| 20260904195504 | 76 | 16 | 1.0 | 6.0 | 0.00 | 0.06 | 0.00 | 72 | 1014.0 |
| 20260904195306 | 76 | 28 | 1.0 | 6.0 | 0.00 | 0.06 | 0.00 | 73 | 1014.0 |
| 20260904195104 | 76 | 38 | 2.0 | 6.0 | 0.00 | 0.06 | 0.00 | 72 | 1013.9 |
| 20260904194903 | 76 | 26 | 2.0 | 6.0 | 0.00 | 0.06 | 0.00 | 72 | 1013.9 |
| 20260904194703 | 77 | 25 | 2.0 | 5.0 | 0.00 | 0.06 | 0.00 | 72 | 1014.0 |
| 20260904194503 | 77 | 79 | 1.0 | 3.0 | 0.00 | 0.06 | 0.00 | 71 | 1014.1 |
| 20260904194302 | 77 | 124 | 0.0 | 2.0 | 0.00 | 0.06 | 0.00 | 71 | 1014.0 |
| 20260904194102 | 77 | 146 | 0.0 | 2.0 | 0.00 | 0.06 | 0.00 | 71 | 1014.0 |
| 20260904193902 | 77 | 145 | 0.0 | 3.0 | 0.00 | 0.06 | 0.00 | 71 | 1014.0 |
| 20260904193701 | 77 | 6 | 0.0 | 3.0 | 0.00 | 0.06 | 0.00 | 70 | 1014.0 |
| 20260904193501 | 77 | 349 | 1.0 | 3.0 | 0.00 | 0.06 | 0.00 | 70 | 1013.9 |
| 20260904193301 | 77 | 86 | 1.0 | 3.0 | 0.00 | 0.06 | 0.00 | 70 | 1014.0 |
| 20260904193101 | 78 | 57 | 1.0 | 3.0 | 0.00 | 0.06 | 0.00 | 70 | 1014.0 |
| 20260904192900 | 78 | 62 | 1.0 | 3.0 | 0.00 | 0.06 | 0.00 | 70 | 1014.0 |
| 20260904192700 | 78 | 64 | 1.0 | 3.0 | 0.00 | 0.06 | 0.00 | 70 | 1014.0 |
| 20260904192500 | 78 | 51 | 1.0 | 4.0 | 0.00 | 0.06 | 0.00 | 70 | 1014.1 |
| 20260904192259 | 78 | 49 | 1.0 | 4.0 | 0.00 | 0.06 | 0.00 | 69 | 1014.1 |
| 20260904192059 | 78 | 77 | 1.0 | 4.0 | 0.00 | 0.06 | 0.00 | 69 | 1014.1 |
| 20260904191859 | 78 | 91 | 1.0 | 4.0 | 0.00 | 0.06 | 0.00 | 69 | 1014.1 |
| 20260904191658 | 78 | 119 | 1.0 | 4.0 | 0.00 | 0.06 | 0.00 | 70 | 1014.1 |
| 20260904191458 | 77 | 139 | 0.0 | 4.0 | 0.00 | 0.06 | 0.00 | 70 | 1014.2 |
| 20260904191258 | 77 | 136 | 1.0 | 4.0 | 0.00 | 0.06 | 0.00 | 70 | 1014.2 |
| 20260904191057 | 77 | 79 | 1.0 | 4.0 | 0.00 | 0.06 | 0.00 | 70 | 1014.3 |
| 20260904190857 | 77 | 58 | 2.0 | 4.0 | 0.00 | 0.06 | 0.00 | 70 | 1014.3 |
| 20260904190657 | 78 | 42 | 1.0 | 3.0 | 0.00 | 0.06 | 0.00 | 68 | 1014.3 |
| 20260904190457 | 78 | 40 | 1.0 | 2.0 | 0.00 | 0.06 | 0.00 | 69 | 1014.3 |
| 20260904190256 | 78 | 62 | 1.0 | 2.0 | 0.00 | 0.06 | 0.00 | 68 | 1014.3 |
| 20260904190056 | 77 | 126 | 0.0 | 2.0 | 0.00 | 0.06 | 0.00 | 70 | 1014.4 |
| 20260904185856 | 77 | 104 | 0.0 | 3.0 | 0.00 | 0.06 | 0.00 | 69 | 1014.4 |
| 20260904185655 | 77 | 62 | 0.0 | 3.0 | 0.00 | 0.06 | 0.00 | 69 | 1014.3 |
| 20260904185455 | 77 | 102 | 1.0 | 5.0 | 0.00 | 0.06 | 0.00 | 69 | 1014.4 |
| 20260904185255 | 77 | 172 | 1.0 | 5.0 | 0.00 | 0.06 | 0.00 | 69 | 1014.4 |
| 20260904185054 | 77 | 161 | 1.0 | 5.0 | 0.00 | 0.06 | 0.00 | 69 | 1014.5 |
| 20260904184854 | 78 | 62 | 1.0 | 5.0 | 0.00 | 0.06 | 0.00 | 69 | 1014.5 |
| 20260904184654 | 78 | 91 | 1.0 | 6.0 | 0.00 | 0.06 | 0.00 | 69 | 1014.5 |
| 20260904184453 | 78 | 122 | 0.0 | 6.0 | 0.00 | 0.06 | 0.00 | 71 | 1014.6 |
| 20260904184253 | 77 | 228 | 1.0 | 6.0 | 0.00 | 0.06 | 0.00 | 71 | 1014.7 |
| 20260904184053 | 77 | 255 | 1.0 | 6.0 | 0.00 | 0.06 | 0.00 | 70 | 1014.7 |
| 20260904183852 | 77 | 251 | 2.0 | 6.0 | 0.00 | 0.06 | 0.00 | 70 | 1014.7 |
| 20260904183652 | 77 | 159 | 2.0 | 6.0 | 0.00 | 0.06 | 0.00 | 69 | 1014.8 |
| 20260904183452 | 77 | 241 | 1.0 | 5.0 | 0.00 | 0.06 | 0.00 | 70 | 1014.9 |
| 20260904183251 | 77 | 184 | 1.0 | 5.0 | 0.00 | 0.06 | 0.00 | 69 | 1015.0 |
| 20260904183051 | 77 | 72 | 1.0 | 5.0 | 0.00 | 0.06 | 0.00 | 69 | 1015.0 |
| 20260904182851 | 77 | 110 | 1.0 | 5.0 | 0.00 | 0.06 | 0.00 | 69 | 1015.0 |
| 20260904182651 | 77 | 49 | 1.0 | 5.0 | 0.00 | 0.06 | 0.00 | 68 | 1015.0 |
| 20260904182450 | 77 | 247 | 1.0 | 4.0 | 0.00 | 0.06 | 0.00 | 69 | 1015.0 |
| 20260904182250 | 77 | 186 | 0.0 | 4.0 | 0.00 | 0.06 | 0.00 | 70 | 1015.1 |
| 20260904182050 | 76 | 237 | 0.0 | 4.0 | 0.00 | 0.06 | 0.00 | 71 | 1015.1 |
| 20260904181849 | 76 | 237 | 1.0 | 5.0 | 0.00 | 0.06 | 0.00 | 70 | 1015.1 |
| 20260904181649 | 76 | 240 | 0.0 | 5.0 | 0.00 | 0.06 | 0.00 | 70 | 1015.2 |
| 20260904181449 | 76 | 197 | 1.0 | 5.0 | 0.00 | 0.06 | 0.00 | 70 | 1015.3 |
| 20260904181248 | 76 | 158 | 1.0 | 5.0 | 0.00 | 0.06 | 0.00 | 70 | 1015.2 |
| 20260904181048 | 76 | 257 | 1.0 | 5.0 | 0.00 | 0.06 | 0.00 | 70 | 1015.2 |
| 20260904180848 | 76 | 320 | 1.0 | 3.0 | 0.00 | 0.06 | 0.00 | 70 | 1015.3 |
| 20260904180647 | 76 | 349 | 0.0 | 3.0 | 0.00 | 0.06 | 0.00 | 70 | 1015.2 |
| 20260904180447 | 76 | 126 | 0.0 | 4.0 | 0.00 | 0.06 | 0.00 | 71 | 1015.3 |
| 20260904180247 | 76 | 126 | 0.0 | 4.0 | 0.00 | 0.06 | 0.00 | 70 | 1015.3 |
| 20260904180047 | 77 | 75 | 1.0 | 4.0 | 0.00 | 0.06 | 0.00 | 70 | 1015.3 |
| 20260904175846 | 77 | 42 | 1.0 | 4.0 | 0.00 | 0.06 | 0.00 | 71 | 1015.4 |
| 20260904175646 | 77 | 45 | 1.0 | 4.0 | 0.00 | 0.06 | 0.00 | 71 | 1015.3 |
| 20260904175446 | 77 | 110 | 0.0 | 4.0 | 0.00 | 0.06 | 0.00 | 71 | 1015.3 |
| 20260904175245 | 77 | 184 | 1.0 | 4.0 | 0.00 | 0.06 | 0.00 | 71 | 1015.3 |
| 20260904175045 | 76 | 134 | 0.0 | 4.0 | 0.00 | 0.06 | 0.00 | 72 | 1015.3 |
| 20260904174845 | 76 | 83 | 1.0 | 4.0 | 0.00 | 0.06 | 0.00 | 72 | 1015.4 |
| 20260904174644 | 76 | 104 | 1.0 | 4.0 | 0.00 | 0.06 | 0.00 | 72 | 1015.4 |
| 20260904174444 | 76 | 185 | 1.0 | 4.0 | 0.00 | 0.06 | 0.00 | 72 | 1015.4 |
| 20260904174244 | 76 | 200 | 0.0 | 4.0 | 0.00 | 0.06 | 0.00 | 72 | 1015.4 |
| 20260904174043 | 76 | 110 | 1.0 | 4.0 | 0.00 | 0.06 | 0.00 | 72 | 1015.3 |
| 20260904173843 | 76 | 111 | 0.0 | 4.0 | 0.00 | 0.06 | 0.00 | 72 | 1015.3 |
| 20260904173643 | 76 | 145 | 1.0 | 5.0 | 0.00 | 0.06 | 0.00 | 72 | 1015.3 |
| 20260904173442 | 76 | 189 | 0.0 | 6.0 | 0.00 | 0.06 | 0.00 | 72 | 1015.4 |
| 20260904173242 | 76 | 222 | 0.0 | 6.0 | 0.00 | 0.06 | 0.00 | 72 | 1015.4 |
| 20260904173042 | 76 | 220 | 1.0 | 6.0 | 0.00 | 0.06 | 0.00 | 72 | 1015.4 |
| 20260904172842 | 76 | 217 | 2.0 | 6.0 | 0.00 | 0.06 | 0.00 | 72 | 1015.4 |
| 20260904172641 | 76 | 221 | 1.0 | 6.0 | 0.00 | 0.06 | 0.00 | 71 | 1015.4 |
| 20260904172441 | 76 | 220 | 0.0 | 3.0 | 0.00 | 0.06 | 0.00 | 71 | 1015.5 |
| 20260904172241 | 76 | 220 | 1.0 | 4.0 | 0.00 | 0.06 | 0.00 | 70 | 1015.5 |
| 20260904172040 | 76 | 219 | 1.0 | 4.0 | 0.00 | 0.06 | 0.00 | 71 | 1015.5 |
| 20260904171840 | 76 | 221 | 1.0 | 4.0 | 0.00 | 0.06 | 0.00 | 71 | 1015.5 |
| 20260904171640 | 76 | 223 | 1.0 | 4.0 | 0.00 | 0.06 | 0.00 | 71 | 1015.5 |
| 20260904171439 | 76 | 222 | 0.0 | 4.0 | 0.00 | 0.06 | 0.00 | 72 | 1015.5 |
| 20260904171239 | 76 | 223 | 1.0 | 3.0 | 0.00 | 0.06 | 0.00 | 72 | 1015.5 |
| 20260904171039 | 76 | 234 | 1.0 | 4.0 | 0.00 | 0.06 | 0.00 | 71 | 1015.5 |
| 20260904170838 | 76 | 203 | 1.0 | 4.0 | 0.00 | 0.06 | 0.00 | 71 | 1015.5 |
| 20260904170638 | 76 | 209 | 1.0 | 4.0 | 0.00 | 0.06 | 0.00 | 71 | 1015.5 |
| 20260904170438 | 76 | 200 | 1.0 | 4.0 | 0.00 | 0.06 | 0.00 | 71 | 1015.5 |
| 20260904170237 | 76 | 203 | 1.0 | 4.0 | 0.00 | 0.06 | 0.00 | 71 | 1015.6 |
| 20260904170037 | 76 | 200 | 1.0 | 3.0 | 0.00 | 0.06 | 0.00 | 70 | 1015.6 |
| 20260904165837 | 77 | 155 | 0.0 | 3.0 | 0.00 | 0.06 | 0.00 | 70 | 1015.6 |
| 20260904165637 | 76 | 128 | 0.0 | 3.0 | 0.00 | 0.06 | 0.00 | 69 | 1015.6 |
| 20260904165436 | 76 | 129 | 0.0 | 3.0 | 0.00 | 0.06 | 0.00 | 69 | 1015.6 |
| 20260904165236 | 76 | 130 | 0.0 | 3.0 | 0.00 | 0.06 | 0.00 | 70 | 1015.7 |
| 20260904165036 | 76 | 182 | 1.0 | 3.0 | 0.00 | 0.06 | 0.00 | 70 | 1015.7 |
| 20260904164835 | 76 | 219 | 0.0 | 4.0 | 0.00 | 0.06 | 0.00 | 70 | 1015.7 |
| 20260904164635 | 76 | 219 | 0.0 | 4.0 | 0.00 | 0.06 | 0.00 | 70 | 1015.8 |
| 20260904164435 | 76 | 219 | 1.0 | 4.0 | 0.00 | 0.06 | 0.00 | 70 | 1015.8 |
| 20260904164234 | 76 | 204 | 1.0 | 4.0 | 0.00 | 0.06 | 0.00 | 70 | 1015.8 |
| 20260904164034 | 77 | 201 | 1.0 | 4.0 | 0.00 | 0.06 | 0.00 | 69 | 1015.8 |
| 20260904163834 | 77 | 236 | 0.0 | 2.0 | 0.00 | 0.06 | 0.00 | 70 | 1015.8 |
| 20260904163633 | 77 | 237 | 0.0 | 4.0 | 0.00 | 0.06 | 0.00 | 70 | 1015.8 |
| 20260904163433 | 77 | 237 | 0.0 | 4.0 | 0.00 | 0.06 | 0.00 | 70 | 1015.8 |
| 20260904163233 | 77 | 236 | 0.0 | 4.0 | 0.00 | 0.06 | 0.00 | 69 | 1015.9 |
| 20260904163033 | 77 | 199 | 1.0 | 6.0 | 0.00 | 0.06 | 0.00 | 70 | 1015.9 |
| 20260904162832 | 77 | 256 | 1.0 | 7.0 | 0.00 | 0.06 | 0.00 | 70 | 1015.9 |
| 20260904162632 | 77 | 271 | 1.0 | 7.0 | 0.00 | 0.06 | 0.00 | 70 | 1015.8 |
| 20260904162432 | 77 | 194 | 3.0 | 7.0 | 0.00 | 0.06 | 0.00 | 70 | 1015.8 |
| 20260904162231 | 77 | 212 | 3.0 | 7.0 | 0.00 | 0.06 | 0.00 | 70 | 1015.8 |
| 20260904162031 | 77 | 233 | 2.0 | 6.0 | 0.00 | 0.06 | 0.00 | 70 | 1015.9 |
| 20260904161831 | 77 | 209 | 1.0 | 4.0 | 0.00 | 0.06 | 0.00 | 69 | 1015.9 |
| 20260904161630 | 77 | 64 | 1.0 | 4.0 | 0.00 | 0.06 | 0.00 | 69 | 1016.0 |
| 20260904161430 | 77 | 196 | 2.0 | 4.0 | 0.00 | 0.06 | 0.00 | 68 | 1016.0 |